2016 Cux-Wetter.de -Die Nutzung der Wetterdaten nur mit ausdrcklicher Genehmigung
Wetterdaten: Montag, 12.03.2018
Datum Zeit Temp. A. Feuchte A. Luftdruck Regen Wind Richtung Richtung Sonnenschein Solar Taupunkt Windchill Windben
12.03.2018 00:00 7,3 C 94 % 992,0 hPa 0,0 l/m 1,1 km/h (1 Bft) S-SO 161 0 min 0 W/m 6,4 C 7,3 C 3,2 km/h (1 Bft)
12.03.2018 00:03 7,1 C 94 % 992,0 hPa 0,0 l/m 0,2 km/h (0 Bft) S-SO 161 0 min 0 W/m 6,2 C 7,1 C 1,6 km/h (1 Bft)
12.03.2018 00:06 7,1 C 95 % 991,9 hPa 0,0 l/m 0,2 km/h (0 Bft) S-SO 161 0 min 0 W/m 6,4 C 7,1 C 1,6 km/h (1 Bft)
12.03.2018 00:09 6,9 C 95 % 991,9 hPa 0,0 l/m 0,0 km/h (0 Bft) S-SO 161 0 min 0 W/m 6,2 C 6,9 C 0,0 km/h (0 Bft)
12.03.2018 00:12 6,8 C 95 % 991,9 hPa 0,0 l/m 0,1 km/h (0 Bft) S-SO 161 0 min 0 W/m 6,1 C 6,8 C 1,6 km/h (1 Bft)
12.03.2018 00:15 6,8 C 95 % 991,9 hPa 0,0 l/m 0,0 km/h (0 Bft) S-SO 161 0 min 0 W/m 6,1 C 6,8 C 0,0 km/h (0 Bft)
12.03.2018 00:18 6,8 C 95 % 991,9 hPa 0,0 l/m 0,0 km/h (0 Bft) S-SO 161 0 min 0 W/m 6,1 C 6,8 C 0,0 km/h (0 Bft)
12.03.2018 00:21 6,9 C 95 % 991,8 hPa 0,0 l/m 0,0 km/h (0 Bft) S-SO 161 0 min 0 W/m 6,2 C 6,9 C 0,0 km/h (0 Bft)
12.03.2018 00:24 7,0 C 96 % 991,8 hPa 0,0 l/m 0,0 km/h (0 Bft) S-SO 161 0 min 0 W/m 6,4 C 7,0 C 0,0 km/h (0 Bft)
12.03.2018 00:27 6,9 C 95 % 991,8 hPa 0,0 l/m 0,1 km/h (0 Bft) S-SO 161 0 min 0 W/m 6,2 C 6,9 C 1,6 km/h (1 Bft)
12.03.2018 00:30 6,7 C 95 % 991,8 hPa 0,0 l/m 0,0 km/h (0 Bft) S-SO 161 0 min 0 W/m 6,0 C 6,7 C 1,6 km/h (1 Bft)
12.03.2018 00:33 6,5 C 95 % 991,8 hPa 0,0 l/m 0,6 km/h (0 Bft) S-SO 161 0 min 0 W/m 5,8 C 6,5 C 1,6 km/h (1 Bft)
12.03.2018 00:36 6,4 C 95 % 991,8 hPa 0,0 l/m 1,0 km/h (0 Bft) S-SO 161 0 min 0 W/m 5,7 C 6,4 C 1,6 km/h (1 Bft)
12.03.2018 00:39 6,3 C 95 % 991,8 hPa 0,0 l/m 0,0 km/h (0 Bft) S-SO 161 0 min 0 W/m 5,6 C 6,3 C 0,0 km/h (0 Bft)
12.03.2018 00:42 6,2 C 95 % 991,8 hPa 0,0 l/m 0,0 km/h (0 Bft) S-SO 161 0 min 0 W/m 5,5 C 6,2 C 0,0 km/h (0 Bft)
12.03.2018 00:45 6,0 C 95 % 991,8 hPa 0,0 l/m 0,0 km/h (0 Bft) S-SO 161 0 min 0 W/m 5,3 C 6,0 C 0,0 km/h (0 Bft)
12.03.2018 00:48 5,9 C 95 % 991,8 hPa 0,0 l/m 0,0 km/h (0 Bft) S-SO 161 0 min 0 W/m 5,2 C 5,9 C 0,0 km/h (0 Bft)
12.03.2018 00:51 5,8 C 95 % 991,8 hPa 0,0 l/m 0,0 km/h (0 Bft) S-SO 161 0 min 0 W/m 5,1 C 5,8 C 0,0 km/h (0 Bft)
12.03.2018 00:54 5,7 C 95 % 991,8 hPa 0,0 l/m 0,0 km/h (0 Bft) S-SO 161 0 min 0 W/m 5,0 C 5,7 C 0,0 km/h (0 Bft)
12.03.2018 00:57 5,7 C 96 % 991,8 hPa 0,0 l/m 0,0 km/h (0 Bft) S-SO 161 0 min 0 W/m 5,1 C 5,7 C 0,0 km/h (0 Bft)
12.03.2018 01:00 5,8 C 96 % 991,8 hPa 0,0 l/m 0,0 km/h (0 Bft) S-SO 161 0 min 0 W/m 5,2 C 5,8 C 0,0 km/h (0 Bft)
12.03.2018 01:03 5,9 C 96 % 991,8 hPa 0,0 l/m 0,0 km/h (0 Bft) S-SO 161 0 min 0 W/m 5,3 C 5,9 C 0,0 km/h (0 Bft)
12.03.2018 01:06 5,8 C 96 % 991,7 hPa 0,0 l/m 0,0 km/h (0 Bft) S-SO 161 0 min 0 W/m 5,2 C 5,8 C 1,6 km/h (1 Bft)
12.03.2018 01:09 5,7 C 96 % 991,8 hPa 0,0 l/m 0,0 km/h (0 Bft) S-SO 161 0 min 0 W/m 5,1 C 5,7 C 0,0 km/h (0 Bft)
12.03.2018 01:12 5,6 C 96 % 991,8 hPa 0,0 l/m 0,0 km/h (0 Bft) S-SO 161 0 min 0 W/m 5,0 C 5,6 C 0,0 km/h (0 Bft)
12.03.2018 01:15 5,4 C 95 % 991,8 hPa 0,0 l/m 0,0 km/h (0 Bft) S-SO 161 0 min 0 W/m 4,7 C 5,4 C 0,0 km/h (0 Bft)
12.03.2018 01:18 5,2 C 95 % 991,7 hPa 0,0 l/m 0,0 km/h (0 Bft) S-SO 161 0 min 0 W/m 4,5 C 5,2 C 0,0 km/h (0 Bft)
12.03.2018 01:21 5,1 C 96 % 991,7 hPa 0,0 l/m 0,0 km/h (0 Bft) S-SO 161 0 min 0 W/m 4,5 C 5,1 C 0,0 km/h (0 Bft)
12.03.2018 01:24 5,0 C 96 % 991,7 hPa 0,0 l/m 0,0 km/h (0 Bft) S-SO 161 0 min 0 W/m 4,4 C 5,0 C 0,0 km/h (0 Bft)
12.03.2018 01:27 4,9 C 96 % 991,7 hPa 0,0 l/m 0,0 km/h (0 Bft) S-SO 161 0 min 0 W/m 4,3 C 4,9 C 0,0 km/h (0 Bft)
12.03.2018 01:30 4,9 C 96 % 991,6 hPa 0,0 l/m 0,1 km/h (0 Bft) S-SO 161 0 min 0 W/m 4,3 C 4,9 C 1,6 km/h (1 Bft)
12.03.2018 01:33 5,0 C 96 % 991,7 hPa 0,0 l/m 0,1 km/h (0 Bft) S-SO 161 0 min 0 W/m 4,4 C 5,0 C 1,6 km/h (1 Bft)
12.03.2018 01:36 4,9 C 96 % 991,7 hPa 0,0 l/m 0,4 km/h (0 Bft) S-SO 161 0 min 0 W/m 4,3 C 4,9 C 1,6 km/h (1 Bft)
12.03.2018 01:39 4,8 C 96 % 991,7 hPa 0,0 l/m 0,7 km/h (0 Bft) S-SO 161 0 min 0 W/m 4,2 C 4,8 C 1,6 km/h (1 Bft)
12.03.2018 01:42 4,7 C 96 % 991,7 hPa 0,0 l/m 0,6 km/h (0 Bft) S-SO 161 0 min 0 W/m 4,1 C 4,7 C 3,2 km/h (1 Bft)
12.03.2018 01:45 4,7 C 96 % 991,7 hPa 0,0 l/m 0,4 km/h (0 Bft) S-SO 161 0 min 0 W/m 4,1 C 4,7 C 1,6 km/h (1 Bft)
12.03.2018 01:48 4,7 C 96 % 991,7 hPa 0,0 l/m 0,1 km/h (0 Bft) S-SO 161 0 min 0 W/m 4,1 C 4,7 C 1,6 km/h (1 Bft)
12.03.2018 01:51 4,6 C 96 % 991,7 hPa 0,0 l/m 0,0 km/h (0 Bft) S-SO 161 0 min 0 W/m 4,0 C 4,6 C 1,6 km/h (1 Bft)
12.03.2018 01:54 4,4 C 96 % 991,7 hPa 0,0 l/m 0,0 km/h (0 Bft) S-SO 161 0 min 0 W/m 3,8 C 4,4 C 0,0 km/h (0 Bft)
12.03.2018 01:57 4,3 C 96 % 991,7 hPa 0,0 l/m 1,2 km/h (1 Bft) S-SO 161 0 min 0 W/m 3,7 C 4,3 C 3,2 km/h (1 Bft)
12.03.2018 02:00 4,2 C 96 % 991,7 hPa 0,0 l/m 1,7 km/h (1 Bft) S-SO 161 0 min 0 W/m 3,6 C 4,2 C 3,2 km/h (1 Bft)
12.03.2018 02:03 4,2 C 96 % 991,7 hPa 0,0 l/m 1,2 km/h (1 Bft) S-SO 161 0 min 0 W/m 3,6 C 4,2 C 3,2 km/h (1 Bft)
12.03.2018 02:06 4,2 C 96 % 991,6 hPa 0,0 l/m 2,1 km/h (1 Bft) S-SO 160 0 min 0 W/m 3,6 C 4,2 C 6,4 km/h (2 Bft)
12.03.2018 02:09 4,2 C 96 % 991,6 hPa 0,0 l/m 2,5 km/h (1 Bft) S-SO 160 0 min 0 W/m 3,6 C 4,2 C 6,4 km/h (2 Bft)
12.03.2018 02:12 4,2 C 96 % 991,6 hPa 0,0 l/m 1,7 km/h (1 Bft) S-SO 160 0 min 0 W/m 3,6 C 4,2 C 6,4 km/h (2 Bft)
12.03.2018 02:15 4,0 C 96 % 991,5 hPa 0,0 l/m 0,4 km/h (0 Bft) S-SO 160 0 min 0 W/m 3,4 C 4,0 C 3,2 km/h (1 Bft)
12.03.2018 02:18 3,8 C 96 % 991,5 hPa 0,0 l/m 0,7 km/h (0 Bft) S-SO 160 0 min 0 W/m 3,2 C 3,8 C 3,2 km/h (1 Bft)
12.03.2018 02:21 3,6 C 96 % 991,5 hPa 0,0 l/m 1,6 km/h (1 Bft) S-SO 160 0 min 0 W/m 3,0 C 3,6 C 3,2 km/h (1 Bft)
12.03.2018 02:24 3,6 C 96 % 991,5 hPa 0,0 l/m 1,0 km/h (0 Bft) S-SO 160 0 min 0 W/m 3,0 C 3,6 C 3,2 km/h (1 Bft)
12.03.2018 02:27 3,8 C 97 % 991,4 hPa 0,0 l/m 1,0 km/h (0 Bft) S-SO 160 0 min 0 W/m 3,4 C 3,8 C 3,2 km/h (1 Bft)
12.03.2018 02:30 4,0 C 97 % 991,4 hPa 0,0 l/m 1,8 km/h (1 Bft) S-SO 160 0 min 0 W/m 3,6 C 4,0 C 6,4 km/h (2 Bft)
12.03.2018 02:33 4,4 C 97 % 991,4 hPa 0,0 l/m 1,9 km/h (1 Bft) S-SO 160 0 min 0 W/m 4,0 C 4,4 C 6,4 km/h (2 Bft)
12.03.2018 02:36 4,7 C 97 % 991,3 hPa 0,0 l/m 1,4 km/h (1 Bft) S-SO 160 0 min 0 W/m 4,3 C 4,7 C 6,4 km/h (2 Bft)
12.03.2018 02:39 4,7 C 97 % 991,3 hPa 0,0 l/m 1,9 km/h (1 Bft) SO 140 0 min 0 W/m 4,3 C 4,7 C 4,8 km/h (1 Bft)
12.03.2018 02:42 4,4 C 96 % 991,3 hPa 0,0 l/m 1,5 km/h (1 Bft) SO 140 0 min 0 W/m 3,8 C 4,4 C 3,2 km/h (1 Bft)
12.03.2018 02:45 4,2 C 96 % 991,2 hPa 0,0 l/m 0,7 km/h (0 Bft) SO 140 0 min 0 W/m 3,6 C 4,2 C 3,2 km/h (1 Bft)
12.03.2018 02:48 4,0 C 96 % 991,2 hPa 0,0 l/m 0,8 km/h (0 Bft) SO 140 0 min 0 W/m 3,4 C 4,0 C 3,2 km/h (1 Bft)
12.03.2018 02:51 4,0 C 96 % 991,1 hPa 0,0 l/m 1,2 km/h (1 Bft) SO 140 0 min 0 W/m 3,4 C 4,0 C 4,8 km/h (1 Bft)
12.03.2018 02:54 4,0 C 97 % 991,1 hPa 0,0 l/m 1,1 km/h (1 Bft) SO 140 0 min 0 W/m 3,6 C 4,0 C 3,2 km/h (1 Bft)
12.03.2018 02:57 4,2 C 97 % 991,1 hPa 0,0 l/m 2,1 km/h (1 Bft) SO 140 0 min 0 W/m 3,8 C 4,2 C 3,2 km/h (1 Bft)
12.03.2018 03:00 4,3 C 97 % 991,2 hPa 0,0 l/m 2,6 km/h (1 Bft) SO 140 0 min 0 W/m 3,9 C 4,3 C 4,8 km/h (1 Bft)
12.03.2018 03:03 4,7 C 97 % 991,2 hPa 0,0 l/m 3,0 km/h (1 Bft) SO 140 0 min 0 W/m 4,3 C 4,7 C 4,8 km/h (1 Bft)
12.03.2018 03:06 4,7 C 97 % 991,1 hPa 0,0 l/m 2,2 km/h (1 Bft) SO 140 0 min 0 W/m 4,3 C 4,7 C 4,8 km/h (1 Bft)
12.03.2018 03:09 4,8 C 97 % 991,1 hPa 0,0 l/m 1,5 km/h (1 Bft) SO 140 0 min 0 W/m 4,4 C 4,8 C 3,2 km/h (1 Bft)
12.03.2018 03:12 4,8 C 97 % 991,1 hPa 0,0 l/m 1,4 km/h (1 Bft) SO 140 0 min 0 W/m 4,4 C 4,8 C 3,2 km/h (1 Bft)
12.03.2018 03:15 4,6 C 97 % 991,0 hPa 0,0 l/m 1,3 km/h (1 Bft) SO 140 0 min 0 W/m 4,2 C 4,6 C 3,2 km/h (1 Bft)
12.03.2018 03:18 4,1 C 96 % 991,0 hPa 0,0 l/m 1,4 km/h (1 Bft) SO 140 0 min 0 W/m 3,5 C 4,1 C 3,2 km/h (1 Bft)
12.03.2018 03:21 3,9 C 96 % 991,0 hPa 0,0 l/m 2,2 km/h (1 Bft) SO 140 0 min 0 W/m 3,3 C 3,9 C 4,8 km/h (1 Bft)
12.03.2018 03:24 4,2 C 97 % 991,0 hPa 0,0 l/m 1,9 km/h (1 Bft) SO 139 0 min 0 W/m 3,8 C 4,2 C 4,8 km/h (1 Bft)
12.03.2018 03:27 4,5 C 97 % 991,0 hPa 0,0 l/m 2,5 km/h (1 Bft) SO 139 0 min 0 W/m 4,1 C 4,5 C 4,8 km/h (1 Bft)
12.03.2018 03:30 4,8 C 97 % 991,0 hPa 0,0 l/m 1,6 km/h (1 Bft) SO 139 0 min 0 W/m 4,4 C 4,8 C 3,2 km/h (1 Bft)
12.03.2018 03:33 4,7 C 97 % 991,0 hPa 0,0 l/m 0,7 km/h (0 Bft) SO 139 0 min 0 W/m 4,3 C 4,7 C 3,2 km/h (1 Bft)
12.03.2018 03:36 4,2 C 96 % 991,0 hPa 0,0 l/m 1,3 km/h (1 Bft) SO 139 0 min 0 W/m 3,6 C 4,2 C 3,2 km/h (1 Bft)
12.03.2018 03:39 3,8 C 96 % 991,0 hPa 0,0 l/m 1,3 km/h (1 Bft) SO 139 0 min 0 W/m 3,2 C 3,8 C 3,2 km/h (1 Bft)
12.03.2018 03:42 3,6 C 96 % 991,0 hPa 0,0 l/m 1,6 km/h (1 Bft) SO 139 0 min 0 W/m 3,0 C 3,6 C 3,2 km/h (1 Bft)
12.03.2018 03:45 3,6 C 97 % 991,0 hPa 0,0 l/m 1,2 km/h (1 Bft) SO 139 0 min 0 W/m 3,2 C 3,6 C 3,2 km/h (1 Bft)
12.03.2018 03:48 3,5 C 97 % 990,9 hPa 0,0 l/m 1,5 km/h (1 Bft) SO 139 0 min 0 W/m 3,1 C 3,5 C 4,8 km/h (1 Bft)
12.03.2018 03:51 3,7 C 97 % 990,9 hPa 0,0 l/m 1,7 km/h (1 Bft) SO 139 0 min 0 W/m 3,3 C 3,7 C 3,2 km/h (1 Bft)
12.03.2018 03:54 4,2 C 97 % 990,9 hPa 0,0 l/m 2,1 km/h (1 Bft) SO 139 0 min 0 W/m 3,8 C 4,2 C 4,8 km/h (1 Bft)
12.03.2018 03:57 4,3 C 97 % 990,9 hPa 0,0 l/m 1,5 km/h (1 Bft) SO 135 0 min 0 W/m 3,9 C 4,3 C 4,8 km/h (1 Bft)
12.03.2018 04:00 4,4 C 97 % 990,9 hPa 0,0 l/m 3,7 km/h (1 Bft) O-SO 119 0 min 0 W/m 4,0 C 4,4 C 6,4 km/h (2 Bft)
12.03.2018 04:03 4,6 C 97 % 990,8 hPa 0,0 l/m 1,6 km/h (1 Bft) O-SO 123 0 min 0 W/m 4,2 C 4,6 C 4,8 km/h (1 Bft)
12.03.2018 04:06 4,6 C 97 % 990,8 hPa 0,0 l/m 1,8 km/h (1 Bft) SO 136 0 min 0 W/m 4,2 C 4,6 C 6,4 km/h (2 Bft)
12.03.2018 04:09 4,6 C 97 % 990,8 hPa 0,0 l/m 0,8 km/h (0 Bft) SO 136 0 min 0 W/m 4,2 C 4,6 C 1,6 km/h (1 Bft)
12.03.2018 04:12 4,4 C 97 % 990,7 hPa 0,0 l/m 1,7 km/h (1 Bft) SO 135 0 min 0 W/m 4,0 C 4,4 C 3,2 km/h (1 Bft)
12.03.2018 04:15 4,2 C 97 % 990,7 hPa 0,0 l/m 2,4 km/h (1 Bft) SO 136 0 min 0 W/m 3,8 C 4,2 C 4,8 km/h (1 Bft)
12.03.2018 04:18 4,2 C 97 % 990,7 hPa 0,0 l/m 2,3 km/h (1 Bft) SO 134 0 min 0 W/m 3,8 C 4,2 C 4,8 km/h (1 Bft)
12.03.2018 04:21 4,2 C 97 % 990,6 hPa 0,0 l/m 1,3 km/h (1 Bft) SO 134 0 min 0 W/m 3,8 C 4,2 C 3,2 km/h (1 Bft)
12.03.2018 04:24 4,3 C 97 % 990,6 hPa 0,0 l/m 0,8 km/h (0 Bft) SO 134 0 min 0 W/m 3,9 C 4,3 C 3,2 km/h (1 Bft)
12.03.2018 04:27 4,2 C 97 % 990,6 hPa 0,0 l/m 0,7 km/h (0 Bft) SO 134 0 min 0 W/m 3,8 C 4,2 C 3,2 km/h (1 Bft)
12.03.2018 04:30 4,2 C 97 % 990,6 hPa 0,0 l/m 0,9 km/h (0 Bft) SO 134 0 min 0 W/m 3,8 C 4,2 C 3,2 km/h (1 Bft)
12.03.2018 04:33 4,2 C 97 % 990,7 hPa 0,0 l/m 1,9 km/h (1 Bft) SO 138 0 min 0 W/m 3,8 C 4,2 C 6,4 km/h (2 Bft)
12.03.2018 04:36 4,2 C 97 % 990,6 hPa 0,0 l/m 2,3 km/h (1 Bft) SO 138 0 min 0 W/m 3,8 C 4,2 C 3,2 km/h (1 Bft)
12.03.2018 04:39 4,2 C 97 % 990,6 hPa 0,0 l/m 0,9 km/h (0 Bft) SO 138 0 min 0 W/m 3,8 C 4,2 C 1,6 km/h (1 Bft)
12.03.2018 04:42 4,2 C 97 % 990,6 hPa 0,0 l/m 0,3 km/h (0 Bft) SO 138 0 min 0 W/m 3,8 C 4,2 C 1,6 km/h (1 Bft)
12.03.2018 04:45 4,2 C 97 % 990,6 hPa 0,0 l/m 0,3 km/h (0 Bft) SO 137 0 min 0 W/m 3,8 C 4,2 C 1,6 km/h (1 Bft)
12.03.2018 04:48 4,2 C 97 % 990,6 hPa 0,0 l/m 0,3 km/h (0 Bft) SO 138 0 min 0 W/m 3,8 C 4,2 C 1,6 km/h (1 Bft)
12.03.2018 04:51 4,2 C 97 % 990,6 hPa 0,0 l/m 1,5 km/h (1 Bft) SO 138 0 min 0 W/m 3,8 C 4,2 C 3,2 km/h (1 Bft)
12.03.2018 04:54 4,1 C 97 % 990,6 hPa 0,0 l/m 2,0 km/h (1 Bft) SO 138 0 min 0 W/m 3,7 C 4,1 C 4,8 km/h (1 Bft)
12.03.2018 04:57 4,1 C 97 % 990,6 hPa 0,0 l/m 4,5 km/h (1 Bft) SO 130 0 min 0 W/m 3,7 C 4,1 C 6,4 km/h (2 Bft)
12.03.2018 05:00 4,2 C 97 % 990,7 hPa 0,0 l/m 4,1 km/h (1 Bft) S-SO 148 0 min 0 W/m 3,8 C 4,2 C 8,0 km/h (2 Bft)
12.03.2018 05:03 4,3 C 97 % 990,7 hPa 0,0 l/m 2,8 km/h (1 Bft) S-SO 147 0 min 0 W/m 3,9 C 4,3 C 4,8 km/h (1 Bft)
12.03.2018 05:06 4,3 C 98 % 990,6 hPa 0,0 l/m 1,8 km/h (1 Bft) S-SO 147 0 min 0 W/m 4,0 C 4,3 C 3,2 km/h (1 Bft)
12.03.2018 05:09 4,4 C 98 % 990,7 hPa 0,0 l/m 1,5 km/h (1 Bft) S-SO 148 0 min 0 W/m 4,1 C 4,4 C 3,2 km/h (1 Bft)
12.03.2018 05:12 4,4 C 98 % 990,6 hPa 0,0 l/m 2,8 km/h (1 Bft) S-SO 153 0 min 0 W/m 4,1 C 4,4 C 6,4 km/h (2 Bft)
12.03.2018 05:15 4,4 C 98 % 990,6 hPa 0,0 l/m 2,5 km/h (1 Bft) S-SO 153 0 min 0 W/m 4,1 C 4,4 C 4,8 km/h (1 Bft)
12.03.2018 05:18 4,4 C 97 % 990,5 hPa 0,0 l/m 2,5 km/h (1 Bft) S-SO 153 0 min 0 W/m 4,0 C 4,4 C 4,8 km/h (1 Bft)
12.03.2018 05:21 4,2 C 97 % 990,5 hPa 0,0 l/m 1,3 km/h (1 Bft) S-SO 153 0 min 0 W/m 3,8 C 4,2 C 3,2 km/h (1 Bft)
12.03.2018 05:24 4,1 C 97 % 990,5 hPa 0,0 l/m 1,3 km/h (1 Bft) S-SO 153 0 min 0 W/m 3,7 C 4,1 C 3,2 km/h (1 Bft)
12.03.2018 05:27 3,8 C 97 % 990,5 hPa 0,0 l/m 1,6 km/h (1 Bft) S-SO 153 0 min 0 W/m 3,4 C 3,8 C 4,8 km/h (1 Bft)
12.03.2018 05:30 3,5 C 97 % 990,5 hPa 0,0 l/m 1,8 km/h (1 Bft) S-SO 153 0 min 0 W/m 3,1 C 3,5 C 3,2 km/h (1 Bft)
12.03.2018 05:33 3,4 C 97 % 990,5 hPa 0,0 l/m 3,5 km/h (1 Bft) O-SO 117 0 min 0 W/m 3,0 C 3,4 C 6,4 km/h (2 Bft)
12.03.2018 05:36 3,7 C 97 % 990,5 hPa 0,0 l/m 3,2 km/h (1 Bft) O-SO 119 0 min 0 W/m 3,3 C 3,7 C 8,0 km/h (2 Bft)
12.03.2018 05:39 3,8 C 98 % 990,4 hPa 0,0 l/m 2,8 km/h (1 Bft) O-SO 120 0 min 0 W/m 3,5 C 3,8 C 4,8 km/h (1 Bft)
12.03.2018 05:42 3,9 C 98 % 990,5 hPa 0,0 l/m 3,6 km/h (1 Bft) O-SO 121 0 min 0 W/m 3,6 C 3,9 C 6,4 km/h (2 Bft)
12.03.2018 05:45 4,1 C 98 % 990,4 hPa 0,0 l/m 2,6 km/h (1 Bft) O-SO 121 0 min 0 W/m 3,8 C 4,1 C 6,4 km/h (2 Bft)
12.03.2018 05:48 4,1 C 98 % 990,3 hPa 0,0 l/m 1,9 km/h (1 Bft) O-SO 120 0 min 0 W/m 3,8 C 4,1 C 4,8 km/h (1 Bft)
12.03.2018 05:51 4,1 C 98 % 990,3 hPa 0,0 l/m 2,3 km/h (1 Bft) O-SO 121 0 min 0 W/m 3,8 C 4,1 C 4,8 km/h (1 Bft)
12.03.2018 05:54 4,1 C 98 % 990,3 hPa 0,0 l/m 1,3 km/h (1 Bft) O-SO 121 0 min 0 W/m 3,8 C 4,1 C 3,2 km/h (1 Bft)
12.03.2018 05:57 4,1 C 98 % 990,2 hPa 0,0 l/m 2,2 km/h (1 Bft) O-SO 121 0 min 0 W/m 3,8 C 4,1 C 4,8 km/h (1 Bft)
12.03.2018 06:00 4,1 C 98 % 990,2 hPa 0,0 l/m 1,9 km/h (1 Bft) O-SO 121 0 min 0 W/m 3,8 C 4,1 C 4,8 km/h (1 Bft)
12.03.2018 06:03 4,1 C 98 % 990,2 hPa 0,0 l/m 2,1 km/h (1 Bft) O-SO 121 0 min 0 W/m 3,8 C 4,1 C 4,8 km/h (1 Bft)
12.03.2018 06:06 3,9 C 98 % 990,2 hPa 0,0 l/m 3,0 km/h (1 Bft) O-SO 121 0 min 0 W/m 3,6 C 3,9 C 4,8 km/h (1 Bft)
12.03.2018 06:09 3,9 C 97 % 990,3 hPa 0,0 l/m 2,7 km/h (1 Bft) O-SO 121 0 min 0 W/m 3,5 C 3,9 C 4,8 km/h (1 Bft)
12.03.2018 06:12 3,9 C 97 % 990,3 hPa 0,0 l/m 2,9 km/h (1 Bft) S-SO 152 0 min 0 W/m 3,5 C 3,9 C 9,7 km/h (2 Bft)
12.03.2018 06:15 4,1 C 98 % 990,3 hPa 0,0 l/m 2,7 km/h (1 Bft) O 96 0 min 0 W/m 3,8 C 4,1 C 4,8 km/h (1 Bft)
12.03.2018 06:18 4,1 C 98 % 990,3 hPa 0,0 l/m 2,7 km/h (1 Bft) O 94 0 min 0 W/m 3,8 C 4,1 C 4,8 km/h (1 Bft)
12.03.2018 06:21 4,2 C 98 % 990,2 hPa 0,0 l/m 2,9 km/h (1 Bft) SO 133 0 min 0 W/m 3,9 C 4,2 C 6,4 km/h (2 Bft)
12.03.2018 06:24 4,2 C 98 % 990,3 hPa 0,0 l/m 1,6 km/h (1 Bft) SO 134 0 min 0 W/m 3,9 C 4,2 C 4,8 km/h (1 Bft)
12.03.2018 06:27 4,2 C 98 % 990,3 hPa 0,0 l/m 1,7 km/h (1 Bft) SO 133 0 min 0 W/m 3,9 C 4,2 C 4,8 km/h (1 Bft)
12.03.2018 06:30 4,1 C 98 % 990,3 hPa 0,0 l/m 1,7 km/h (1 Bft) SO 133 0 min 0 W/m 3,8 C 4,1 C 3,2 km/h (1 Bft)
12.03.2018 06:33 4,1 C 98 % 990,2 hPa 0,0 l/m 2,0 km/h (1 Bft) O 96 0 min 0 W/m 3,8 C 4,1 C 6,4 km/h (2 Bft)
12.03.2018 06:36 4,2 C 98 % 990,3 hPa 0,0 l/m 2,7 km/h (1 Bft) O-SO 109 0 min 0 W/m 3,9 C 4,2 C 6,4 km/h (2 Bft)
12.03.2018 06:39 4,2 C 98 % 990,2 hPa 0,0 l/m 1,1 km/h (1 Bft) O-SO 110 0 min 0 W/m 3,9 C 4,2 C 4,8 km/h (1 Bft)
12.03.2018 06:42 4,2 C 98 % 990,2 hPa 0,0 l/m 1,6 km/h (1 Bft) O-SO 110 0 min 0 W/m 3,9 C 4,2 C 3,2 km/h (1 Bft)
12.03.2018 06:45 4,2 C 98 % 990,1 hPa 0,0 l/m 1,1 km/h (1 Bft) O-SO 110 0 min 0 W/m 3,9 C 4,2 C 3,2 km/h (1 Bft)
12.03.2018 06:48 4,2 C 98 % 990,1 hPa 0,0 l/m 1,0 km/h (0 Bft) O-SO 110 0 min 0 W/m 3,9 C 4,2 C 3,2 km/h (1 Bft)
12.03.2018 06:51 4,1 C 98 % 990,2 hPa 0,0 l/m 0,4 km/h (0 Bft) O-SO 110 0 min 0 W/m 3,8 C 4,1 C 1,6 km/h (1 Bft)
12.03.2018 06:54 4,1 C 98 % 990,1 hPa 0,0 l/m 1,3 km/h (1 Bft) O-SO 110 0 min 0 W/m 3,8 C 4,1 C 3,2 km/h (1 Bft)
12.03.2018 06:57 4,1 C 98 % 990,1 hPa 0,0 l/m 1,6 km/h (1 Bft) O-SO 110 0 min 0 W/m 3,8 C 4,1 C 3,2 km/h (1 Bft)
12.03.2018 07:00 4,1 C 98 % 990,1 hPa 0,0 l/m 1,3 km/h (1 Bft) O-SO 110 0 min 0 W/m 3,8 C 4,1 C 4,8 km/h (1 Bft)
12.03.2018 07:03 4,1 C 98 % 990,1 hPa 0,0 l/m 2,1 km/h (1 Bft) O-SO 109 0 min 5 W/m 3,8 C 4,1 C 4,8 km/h (1 Bft)
12.03.2018 07:06 4,2 C 98 % 990,2 hPa 0,0 l/m 3,1 km/h (1 Bft) O-SO 108 0 min 5 W/m 3,9 C 4,2 C 4,8 km/h (1 Bft)
12.03.2018 07:09 4,2 C 98 % 990,1 hPa 0,0 l/m 2,4 km/h (1 Bft) O-SO 109 0 min 7 W/m 3,9 C 4,2 C 4,8 km/h (1 Bft)
12.03.2018 07:12 4,2 C 98 % 990,1 hPa 0,0 l/m 3,2 km/h (1 Bft) O-SO 114 0 min 7 W/m 3,9 C 4,2 C 6,4 km/h (2 Bft)
12.03.2018 07:15 4,3 C 98 % 990,1 hPa 0,0 l/m 2,8 km/h (1 Bft) O-SO 115 0 min 9 W/m 4,0 C 4,3 C 6,4 km/h (2 Bft)
12.03.2018 07:18 4,3 C 98 % 990,1 hPa 0,0 l/m 2,8 km/h (1 Bft) O-SO 117 0 min 11 W/m 4,0 C 4,3 C 4,8 km/h (1 Bft)
12.03.2018 07:21 4,3 C 98 % 990,2 hPa 0,0 l/m 2,6 km/h (1 Bft) O-SO 114 0 min 12 W/m 4,0 C 4,3 C 4,8 km/h (1 Bft)
12.03.2018 07:24 4,3 C 98 % 990,2 hPa 0,0 l/m 2,7 km/h (1 Bft) SO 128 0 min 14 W/m 4,0 C 4,3 C 4,8 km/h (1 Bft)
12.03.2018 07:27 4,4 C 98 % 990,2 hPa 0,0 l/m 3,8 km/h (1 Bft) O-SO 120 0 min 16 W/m 4,1 C 4,4 C 8,0 km/h (2 Bft)
12.03.2018 07:30 4,4 C 98 % 990,2 hPa 0,0 l/m 2,4 km/h (1 Bft) O-SO 109 0 min 18 W/m 4,1 C 4,4 C 4,8 km/h (1 Bft)
12.03.2018 07:33 4,4 C 98 % 990,3 hPa 0,0 l/m 2,3 km/h (1 Bft) O-SO 107 0 min 21 W/m 4,1 C 4,4 C 6,4 km/h (2 Bft)
12.03.2018 07:36 4,6 C 98 % 990,3 hPa 0,0 l/m 2,9 km/h (1 Bft) O-SO 109 0 min 23 W/m 4,3 C 4,6 C 4,8 km/h (1 Bft)
12.03.2018 07:39 4,6 C 98 % 990,3 hPa 0,0 l/m 2,8 km/h (1 Bft) O-SO 113 0 min 25 W/m 4,3 C 4,6 C 6,4 km/h (2 Bft)
12.03.2018 07:42 4,7 C 98 % 990,3 hPa 0,0 l/m 4,1 km/h (1 Bft) SO 130 0 min 26 W/m 4,4 C 4,7 C 6,4 km/h (2 Bft)
12.03.2018 07:45 4,8 C 98 % 990,4 hPa 0,0 l/m 3,5 km/h (1 Bft) SO 137 0 min 28 W/m 4,5 C 4,8 C 8,0 km/h (2 Bft)
12.03.2018 07:48 4,9 C 98 % 990,4 hPa 0,0 l/m 2,4 km/h (1 Bft) SO 137 0 min 30 W/m 4,6 C 4,9 C 4,8 km/h (1 Bft)
12.03.2018 07:51 4,9 C 98 % 990,4 hPa 0,0 l/m 3,8 km/h (1 Bft) SO 125 0 min 32 W/m 4,6 C 4,9 C 8,0 km/h (2 Bft)
12.03.2018 07:54 4,9 C 98 % 990,5 hPa 0,0 l/m 3,6 km/h (1 Bft) SO 132 0 min 33 W/m 4,6 C 4,9 C 6,4 km/h (2 Bft)
12.03.2018 07:57 5,1 C 98 % 990,5 hPa 0,0 l/m 3,6 km/h (1 Bft) SO 125 0 min 37 W/m 4,8 C 5,1 C 6,4 km/h (2 Bft)
12.03.2018 08:00 5,2 C 98 % 990,5 hPa 0,0 l/m 3,2 km/h (1 Bft) SO 126 0 min 39 W/m 4,9 C 5,2 C 6,4 km/h (2 Bft)
12.03.2018 08:03 5,2 C 98 % 990,5 hPa 0,0 l/m 2,9 km/h (1 Bft) SO 132 0 min 40 W/m 4,9 C 5,2 C 4,8 km/h (1 Bft)
12.03.2018 08:06 5,2 C 98 % 990,5 hPa 0,0 l/m 3,0 km/h (1 Bft) SO 132 0 min 42 W/m 4,9 C 5,2 C 6,4 km/h (2 Bft)
12.03.2018 08:09 5,2 C 98 % 990,4 hPa 0,0 l/m 2,9 km/h (1 Bft) SO 126 0 min 44 W/m 4,9 C 5,2 C 4,8 km/h (1 Bft)
12.03.2018 08:12 5,1 C 98 % 990,4 hPa 0,0 l/m 3,8 km/h (1 Bft) O 94 0 min 47 W/m 4,8 C 5,1 C 6,4 km/h (2 Bft)
12.03.2018 08:15 5,1 C 98 % 990,4 hPa 0,0 l/m 2,4 km/h (1 Bft) SO 126 0 min 51 W/m 4,8 C 5,1 C 4,8 km/h (1 Bft)
12.03.2018 08:18 5,1 C 98 % 990,4 hPa 0,0 l/m 3,0 km/h (1 Bft) O-SO 121 0 min 56 W/m 4,8 C 5,1 C 6,4 km/h (2 Bft)
12.03.2018 08:21 5,1 C 98 % 990,4 hPa 0,0 l/m 3,3 km/h (1 Bft) SO 142 0 min 58 W/m 4,8 C 5,1 C 8,0 km/h (2 Bft)
12.03.2018 08:24 5,1 C 98 % 990,4 hPa 0,0 l/m 2,7 km/h (1 Bft) SO 134 0 min 60 W/m 4,8 C 5,1 C 4,8 km/h (1 Bft)
12.03.2018 08:27 5,2 C 98 % 990,4 hPa 0,0 l/m 1,4 km/h (1 Bft) SO 134 0 min 62 W/m 4,9 C 5,2 C 3,2 km/h (1 Bft)
12.03.2018 08:30 5,3 C 98 % 990,3 hPa 0,0 l/m 1,8 km/h (1 Bft) SO 134 0 min 65 W/m 5,0 C 5,3 C 3,2 km/h (1 Bft)
12.03.2018 08:33 5,5 C 98 % 990,4 hPa 0,0 l/m 2,0 km/h (1 Bft) SO 134 0 min 67 W/m 5,2 C 5,5 C 4,8 km/h (1 Bft)
12.03.2018 08:36 5,7 C 98 % 990,5 hPa 0,0 l/m 1,3 km/h (1 Bft) SO 134 0 min 69 W/m 5,4 C 5,7 C 3,2 km/h (1 Bft)
12.03.2018 08:39 5,8 C 98 % 990,5 hPa 0,0 l/m 1,3 km/h (1 Bft) SO 134 0 min 70 W/m 5,5 C 5,8 C 3,2 km/h (1 Bft)
12.03.2018 08:42 5,9 C 98 % 990,4 hPa 0,0 l/m 1,0 km/h (0 Bft) SO 134 0 min 72 W/m 5,6 C 5,9 C 3,2 km/h (1 Bft)
12.03.2018 08:45 6,0 C 98 % 990,4 hPa 0,0 l/m 2,4 km/h (1 Bft) SO 134 0 min 74 W/m 5,7 C 6,0 C 4,8 km/h (1 Bft)
12.03.2018 08:48 6,1 C 98 % 990,4 hPa 0,0 l/m 1,5 km/h (1 Bft) SO 134 0 min 77 W/m 5,8 C 6,1 C 4,8 km/h (1 Bft)
12.03.2018 08:51 6,4 C 98 % 990,5 hPa 0,0 l/m 2,8 km/h (1 Bft) SO 135 0 min 79 W/m 6,1 C 6,4 C 4,8 km/h (1 Bft)
12.03.2018 08:54 6,7 C 98 % 990,5 hPa 0,0 l/m 2,1 km/h (1 Bft) SO 141 0 min 84 W/m 6,4 C 6,7 C 4,8 km/h (1 Bft)
12.03.2018 08:57 6,8 C 98 % 990,4 hPa 0,0 l/m 1,3 km/h (1 Bft) SO 141 0 min 86 W/m 6,5 C 6,8 C 4,8 km/h (1 Bft)
12.03.2018 09:00 6,7 C 98 % 990,4 hPa 0,0 l/m 1,9 km/h (1 Bft) SO 141 0 min 91 W/m 6,4 C 6,7 C 4,8 km/h (1 Bft)
12.03.2018 09:03 6,8 C 98 % 990,3 hPa 0,0 l/m 1,0 km/h (0 Bft) SO 141 0 min 97 W/m 6,5 C 6,8 C 3,2 km/h (1 Bft)
12.03.2018 09:06 6,8 C 98 % 990,4 hPa 0,0 l/m 1,8 km/h (1 Bft) SO 141 0 min 104 W/m 6,5 C 6,8 C 3,2 km/h (1 Bft)
12.03.2018 09:09 6,9 C 98 % 990,4 hPa 0,0 l/m 1,3 km/h (1 Bft) SO 141 0 min 113 W/m 6,6 C 6,9 C 3,2 km/h (1 Bft)
12.03.2018 09:12 7,0 C 98 % 990,4 hPa 0,0 l/m 0,8 km/h (0 Bft) SO 142 0 min 121 W/m 6,7 C 7,0 C 3,2 km/h (1 Bft)
12.03.2018 09:15 7,2 C 98 % 990,4 hPa 0,0 l/m 1,0 km/h (0 Bft) SO 142 0 min 127 W/m 6,9 C 7,2 C 3,2 km/h (1 Bft)
12.03.2018 09:18 7,3 C 98 % 990,4 hPa 0,0 l/m 1,1 km/h (1 Bft) SO 141 0 min 134 W/m 7,0 C 7,3 C 3,2 km/h (1 Bft)
12.03.2018 09:21 7,4 C 98 % 990,3 hPa 0,0 l/m 3,2 km/h (1 Bft) O-SO 120 0 min 137 W/m 7,1 C 7,4 C 6,4 km/h (2 Bft)
12.03.2018 09:24 7,5 C 98 % 990,3 hPa 0,0 l/m 2,9 km/h (1 Bft) O-SO 121 0 min 137 W/m 7,2 C 7,5 C 4,8 km/h (1 Bft)
12.03.2018 09:27 7,6 C 98 % 990,3 hPa 0,0 l/m 2,0 km/h (1 Bft) O-SO 121 0 min 135 W/m 7,3 C 7,6 C 4,8 km/h (1 Bft)
12.03.2018 09:30 7,8 C 98 % 990,4 hPa 0,0 l/m 0,9 km/h (0 Bft) O-SO 121 0 min 137 W/m 7,5 C 7,8 C 3,2 km/h (1 Bft)
12.03.2018 09:33 7,9 C 98 % 990,4 hPa 0,0 l/m 1,5 km/h (1 Bft) O-SO 121 0 min 142 W/m 7,6 C 7,9 C 3,2 km/h (1 Bft)
12.03.2018 09:36 8,1 C 98 % 990,3 hPa 0,0 l/m 1,4 km/h (1 Bft) O-SO 121 0 min 146 W/m 7,8 C 8,1 C 3,2 km/h (1 Bft)
12.03.2018 09:39 8,1 C 98 % 990,3 hPa 0,0 l/m 1,5 km/h (1 Bft) O-SO 121 0 min 151 W/m 7,8 C 8,1 C 3,2 km/h (1 Bft)
12.03.2018 09:42 8,2 C 99 % 990,3 hPa 0,0 l/m 0,2 km/h (0 Bft) O-SO 121 0 min 153 W/m 8,1 C 8,2 C 3,2 km/h (1 Bft)
12.03.2018 09:45 8,4 C 98 % 990,3 hPa 0,0 l/m 1,2 km/h (1 Bft) O-SO 121 0 min 155 W/m 8,1 C 8,4 C 3,2 km/h (1 Bft)
12.03.2018 09:48 8,6 C 98 % 990,3 hPa 0,0 l/m 0,2 km/h (0 Bft) O-SO 121 0 min 156 W/m 8,3 C 8,6 C 1,6 km/h (1 Bft)
12.03.2018 09:51 8,6 C 98 % 990,3 hPa 0,0 l/m 1,5 km/h (1 Bft) O-SO 120 0 min 160 W/m 8,3 C 8,6 C 3,2 km/h (1 Bft)
12.03.2018 09:54 8,4 C 99 % 990,2 hPa 0,0 l/m 1,4 km/h (1 Bft) O-SO 120 0 min 165 W/m 8,3 C 8,4 C 3,2 km/h (1 Bft)
12.03.2018 09:57 8,4 C 98 % 990,2 hPa 0,0 l/m 0,1 km/h (0 Bft) O-SO 120 0 min 171 W/m 8,1 C 8,4 C 1,6 km/h (1 Bft)
12.03.2018 10:00 8,5 C 98 % 990,3 hPa 0,0 l/m 1,5 km/h (1 Bft) NW 325 0 min 176 W/m 8,2 C 8,5 C 6,4 km/h (2 Bft)
12.03.2018 10:03 7,8 C 98 % 990,3 hPa 0,0 l/m 5,0 km/h (1 Bft) N 5 0 min 174 W/m 7,5 C 7,8 C 8,0 km/h (2 Bft)
12.03.2018 10:06 7,3 C 97 % 990,4 hPa 0,0 l/m 3,3 km/h (1 Bft) N 5 0 min 190 W/m 6,9 C 7,3 C 6,4 km/h (2 Bft)
12.03.2018 10:09 7,3 C 98 % 990,3 hPa 0,0 l/m 2,2 km/h (1 Bft) N 5 0 min 202 W/m 7,0 C 7,3 C 4,8 km/h (1 Bft)
12.03.2018 10:12 7,4 C 98 % 990,4 hPa 0,0 l/m 3,4 km/h (1 Bft) N 5 0 min 214 W/m 7,1 C 7,4 C 4,8 km/h (1 Bft)
12.03.2018 10:15 7,4 C 98 % 990,5 hPa 0,0 l/m 2,6 km/h (1 Bft) N 5 0 min 241 W/m 7,1 C 7,4 C 4,8 km/h (1 Bft)
12.03.2018 10:18 7,1 C 98 % 990,5 hPa 0,0 l/m 3,1 km/h (1 Bft) N 5 3 min 248 W/m 6,8 C 7,1 C 4,8 km/h (1 Bft)
12.03.2018 10:21 6,7 C 97 % 990,5 hPa 0,0 l/m 2,6 km/h (1 Bft) N 5 3 min 260 W/m 6,3 C 6,7 C 4,8 km/h (1 Bft)
12.03.2018 10:24 6,6 C 98 % 990,5 hPa 0,0 l/m 1,2 km/h (1 Bft) N 5 3 min 264 W/m 6,3 C 6,6 C 3,2 km/h (1 Bft)
12.03.2018 10:27 6,6 C 98 % 990,5 hPa 0,0 l/m 0,7 km/h (0 Bft) N 5 3 min 281 W/m 6,3 C 6,6 C 3,2 km/h (1 Bft)
12.03.2018 10:30 6,7 C 98 % 990,5 hPa 0,0 l/m 0,4 km/h (0 Bft) N 5 3 min 301 W/m 6,4 C 6,7 C 1,6 km/h (1 Bft)
12.03.2018 10:33 7,0 C 98 % 990,5 hPa 0,0 l/m 0,5 km/h (0 Bft) N 5 3 min 301 W/m 6,7 C 7,0 C 1,6 km/h (1 Bft)
12.03.2018 10:36 7,2 C 98 % 990,6 hPa 0,0 l/m 1,6 km/h (1 Bft) N 5 3 min 279 W/m 6,9 C 7,2 C 3,2 km/h (1 Bft)
12.03.2018 10:39 7,3 C 98 % 990,6 hPa 0,0 l/m 3,0 km/h (1 Bft) N 351 3 min 264 W/m 7,0 C 7,3 C 6,4 km/h (2 Bft)
12.03.2018 10:42 7,2 C 98 % 990,6 hPa 0,0 l/m 2,9 km/h (1 Bft) N 351 0 min 255 W/m 6,9 C 7,2 C 6,4 km/h (2 Bft)
12.03.2018 10:45 6,8 C 97 % 990,7 hPa 0,0 l/m 0,9 km/h (0 Bft) N 351 0 min 258 W/m 6,4 C 6,8 C 3,2 km/h (1 Bft)
12.03.2018 10:48 7,3 C 98 % 990,7 hPa 0,0 l/m 0,0 km/h (0 Bft) N 351 0 min 265 W/m 7,0 C 7,3 C 1,6 km/h (1 Bft)
12.03.2018 10:51 7,7 C 98 % 990,9 hPa 0,0 l/m 4,7 km/h (1 Bft) N-NW 337 0 min 257 W/m 7,4 C 7,7 C 9,7 km/h (2 Bft)
12.03.2018 10:54 7,3 C 97 % 990,9 hPa 0,0 l/m 2,2 km/h (1 Bft) N-NW 337 0 min 258 W/m 6,9 C 7,3 C 6,4 km/h (2 Bft)
12.03.2018 10:57 7,5 C 97 % 990,8 hPa 0,0 l/m 1,8 km/h (1 Bft) N-NW 337 0 min 255 W/m 7,1 C 7,5 C 4,8 km/h (1 Bft)
12.03.2018 11:00 7,6 C 97 % 990,8 hPa 0,0 l/m 1,4 km/h (1 Bft) N-NW 337 0 min 257 W/m 7,2 C 7,6 C 3,2 km/h (1 Bft)
12.03.2018 11:03 7,7 C 97 % 990,8 hPa 0,0 l/m 1,8 km/h (1 Bft) N-NW 337 0 min 251 W/m 7,3 C 7,7 C 3,2 km/h (1 Bft)
12.03.2018 11:06 7,8 C 97 % 990,8 hPa 0,0 l/m 1,2 km/h (1 Bft) N-NW 337 0 min 251 W/m 7,4 C 7,8 C 3,2 km/h (1 Bft)
12.03.2018 11:09 7,8 C 97 % 990,8 hPa 0,0 l/m 0,4 km/h (0 Bft) N-NW 337 0 min 250 W/m 7,4 C 7,8 C 1,6 km/h (1 Bft)
12.03.2018 11:12 8,1 C 97 % 990,9 hPa 0,0 l/m 0,0 km/h (0 Bft) N-NW 337 0 min 248 W/m 7,7 C 8,1 C 0,0 km/h (0 Bft)
12.03.2018 11:15 8,3 C 97 % 990,8 hPa 0,0 l/m 1,1 km/h (1 Bft) N-NW 337 0 min 243 W/m 7,9 C 8,3 C 3,2 km/h (1 Bft)
12.03.2018 11:18 8,4 C 97 % 990,8 hPa 0,0 l/m 1,0 km/h (0 Bft) N-NW 337 0 min 244 W/m 8,0 C 8,4 C 1,6 km/h (1 Bft)
12.03.2018 11:21 8,7 C 97 % 990,8 hPa 0,0 l/m 0,4 km/h (0 Bft) N-NW 337 0 min 248 W/m 8,3 C 8,7 C 1,6 km/h (1 Bft)
12.03.2018 11:24 8,8 C 96 % 990,8 hPa 0,0 l/m 0,4 km/h (0 Bft) N-NW 337 0 min 251 W/m 8,2 C 8,8 C 3,2 km/h (1 Bft)
12.03.2018 11:27 9,0 C 95 % 990,8 hPa 0,0 l/m 1,0 km/h (0 Bft) N-NW 337 0 min 255 W/m 8,2 C 9,0 C 3,2 km/h (1 Bft)
12.03.2018 11:30 9,2 C 95 % 990,8 hPa 0,0 l/m 1,4 km/h (1 Bft) N-NW 337 0 min 248 W/m 8,4 C 9,2 C 3,2 km/h (1 Bft)
12.03.2018 11:33 9,3 C 95 % 990,7 hPa 0,0 l/m 1,0 km/h (0 Bft) N-NW 337 0 min 232 W/m 8,5 C 9,3 C 3,2 km/h (1 Bft)
12.03.2018 11:36 9,5 C 95 % 990,7 hPa 0,0 l/m 0,2 km/h (0 Bft) N-NW 337 0 min 225 W/m 8,7 C 9,5 C 1,6 km/h (1 Bft)
12.03.2018 11:39 9,6 C 94 % 990,7 hPa 0,0 l/m 1,6 km/h (1 Bft) N-NW 337 0 min 218 W/m 8,7 C 9,6 C 4,8 km/h (1 Bft)
12.03.2018 11:42 9,5 C 93 % 990,7 hPa 0,0 l/m 1,0 km/h (0 Bft) N-NW 337 0 min 211 W/m 8,4 C 9,5 C 3,2 km/h (1 Bft)
12.03.2018 11:45 9,4 C 93 % 990,7 hPa 0,0 l/m 0,0 km/h (0 Bft) N-NW 337 0 min 213 W/m 8,3 C 9,4 C 0,0 km/h (0 Bft)
12.03.2018 11:48 9,6 C 93 % 990,7 hPa 0,0 l/m 0,0 km/h (0 Bft) N-NW 337 0 min 214 W/m 8,5 C 9,6 C 0,0 km/h (0 Bft)
12.03.2018 11:51 9,9 C 93 % 990,7 hPa 0,0 l/m 0,0 km/h (0 Bft) N-NW 337 0 min 218 W/m 8,8 C 9,9 C 0,0 km/h (0 Bft)
12.03.2018 11:54 10,2 C 93 % 990,6 hPa 0,0 l/m 0,0 km/h (0 Bft) N-NW 337 0 min 225 W/m 9,1 C 10,2 C 1,6 km/h (1 Bft)
12.03.2018 11:57 10,4 C 93 % 990,7 hPa 0,0 l/m 0,1 km/h (0 Bft) N-NW 337 0 min 232 W/m 9,3 C 10,4 C 1,6 km/h (1 Bft)
12.03.2018 12:00 10,7 C 92 % 990,6 hPa 0,0 l/m 0,1 km/h (0 Bft) N-NW 337 0 min 234 W/m 9,5 C 10,7 C 1,6 km/h (1 Bft)
12.03.2018 12:03 10,9 C 92 % 990,7 hPa 0,0 l/m 0,1 km/h (0 Bft) N-NW 337 0 min 239 W/m 9,7 C 10,9 C 1,6 km/h (1 Bft)
12.03.2018 12:06 11,1 C 91 % 990,7 hPa 0,0 l/m 0,2 km/h (0 Bft) N-NW 337 0 min 241 W/m 9,7 C 11,1 C 1,6 km/h (1 Bft)
12.03.2018 12:09 10,8 C 90 % 990,7 hPa 0,0 l/m 0,6 km/h (0 Bft) N-NW 337 0 min 248 W/m 9,2 C 10,8 C 3,2 km/h (1 Bft)
12.03.2018 12:12 10,8 C 90 % 990,6 hPa 0,0 l/m 0,3 km/h (0 Bft) N-NW 337 0 min 251 W/m 9,2 C 10,8 C 1,6 km/h (1 Bft)
12.03.2018 12:15 10,8 C 90 % 990,7 hPa 0,0 l/m 1,0 km/h (0 Bft) N-NW 337 0 min 250 W/m 9,2 C 10,8 C 3,2 km/h (1 Bft)
12.03.2018 12:18 10,8 C 90 % 990,6 hPa 0,0 l/m 0,6 km/h (0 Bft) N-NW 337 0 min 244 W/m 9,2 C 10,8 C 3,2 km/h (1 Bft)
12.03.2018 12:21 11,0 C 90 % 990,6 hPa 0,0 l/m 0,3 km/h (0 Bft) N-NW 337 0 min 246 W/m 9,4 C 11,0 C 1,6 km/h (1 Bft)
12.03.2018 12:24 10,9 C 89 % 990,6 hPa 0,0 l/m 0,2 km/h (0 Bft) N-NW 337 0 min 241 W/m 9,2 C 10,9 C 1,6 km/h (1 Bft)
12.03.2018 12:27 10,9 C 89 % 990,6 hPa 0,0 l/m 0,0 km/h (0 Bft) N-NW 337 0 min 236 W/m 9,2 C 10,9 C 0,0 km/h (0 Bft)
12.03.2018 12:30 10,9 C 89 % 990,5 hPa 0,0 l/m 0,0 km/h (0 Bft) N-NW 337 0 min 221 W/m 9,2 C 10,9 C 0,0 km/h (0 Bft)
12.03.2018 12:33 11,1 C 89 % 990,5 hPa 0,0 l/m 0,0 km/h (0 Bft) N-NW 337 0 min 225 W/m 9,4 C 11,1 C 0,0 km/h (0 Bft)
12.03.2018 12:36 11,2 C 89 % 990,4 hPa 0,0 l/m 0,0 km/h (0 Bft) N-NW 337 0 min 221 W/m 9,5 C 11,2 C 0,0 km/h (0 Bft)
12.03.2018 12:39 11,3 C 89 % 990,5 hPa 0,0 l/m 0,0 km/h (0 Bft) N-NW 337 0 min 216 W/m 9,6 C 11,3 C 0,0 km/h (0 Bft)
12.03.2018 12:42 11,4 C 89 % 990,5 hPa 0,0 l/m 0,0 km/h (0 Bft) N-NW 337 0 min 216 W/m 9,7 C 11,4 C 0,0 km/h (0 Bft)
12.03.2018 12:45 11,4 C 88 % 990,5 hPa 0,0 l/m 0,0 km/h (0 Bft) N-NW 337 0 min 214 W/m 9,5 C 11,4 C 0,0 km/h (0 Bft)
12.03.2018 12:48 11,4 C 88 % 990,5 hPa 0,0 l/m 0,0 km/h (0 Bft) N-NW 337 0 min 213 W/m 9,5 C 11,4 C 0,0 km/h (0 Bft)
12.03.2018 12:51 11,4 C 88 % 990,5 hPa 0,0 l/m 0,0 km/h (0 Bft) N-NW 337 0 min 214 W/m 9,5 C 11,4 C 0,0 km/h (0 Bft)
12.03.2018 12:54 11,5 C 88 % 990,4 hPa 0,0 l/m 0,1 km/h (0 Bft) N-NW 337 0 min 218 W/m 9,6 C 11,5 C 1,6 km/h (1 Bft)
12.03.2018 12:57 11,6 C 88 % 990,5 hPa 0,0 l/m 0,0 km/h (0 Bft) N-NW 337 0 min 218 W/m 9,7 C 11,6 C 0,0 km/h (0 Bft)
12.03.2018 13:00 11,7 C 88 % 990,4 hPa 0,0 l/m 0,0 km/h (0 Bft) N-NW 337 0 min 216 W/m 9,8 C 11,7 C 0,0 km/h (0 Bft)
12.03.2018 13:03 11,8 C 89 % 990,4 hPa 0,0 l/m 2,1 km/h (1 Bft) N-NW 331 0 min 202 W/m 10,0 C 11,8 C 6,4 km/h (2 Bft)
12.03.2018 13:06 12,1 C 89 % 990,4 hPa 0,0 l/m 1,4 km/h (1 Bft) N-NW 331 0 min 183 W/m 10,3 C 12,1 C 4,8 km/h (1 Bft)
12.03.2018 13:09 12,1 C 88 % 990,4 hPa 0,0 l/m 3,2 km/h (1 Bft) N-NW 331 0 min 165 W/m 10,2 C 12,1 C 4,8 km/h (1 Bft)
12.03.2018 13:12 11,9 C 88 % 990,4 hPa 0,0 l/m 2,8 km/h (1 Bft) N-NW 331 0 min 142 W/m 10,0 C 11,9 C 4,8 km/h (1 Bft)
12.03.2018 13:15 11,8 C 88 % 990,4 hPa 0,0 l/m 1,7 km/h (1 Bft) N-NW 331 0 min 127 W/m 9,9 C 11,8 C 3,2 km/h (1 Bft)
12.03.2018 13:18 11,7 C 88 % 990,4 hPa 0,0 l/m 2,6 km/h (1 Bft) N-NW 331 0 min 125 W/m 9,8 C 11,7 C 6,4 km/h (2 Bft)
12.03.2018 13:21 11,5 C 88 % 990,3 hPa 0,0 l/m 2,8 km/h (1 Bft) N-NW 331 0 min 120 W/m 9,6 C 11,5 C 6,4 km/h (2 Bft)
12.03.2018 13:24 11,3 C 89 % 990,3 hPa 0,0 l/m 1,4 km/h (1 Bft) N-NW 331 0 min 109 W/m 9,6 C 11,3 C 4,8 km/h (1 Bft)
12.03.2018 13:27 11,3 C 90 % 990,3 hPa 0,0 l/m 0,0 km/h (0 Bft) N-NW 331 0 min 105 W/m 9,7 C 11,3 C 1,6 km/h (1 Bft)
12.03.2018 13:30 11,3 C 90 % 990,3 hPa 0,0 l/m 1,4 km/h (1 Bft) N-NW 331 0 min 93 W/m 9,7 C 11,3 C 3,2 km/h (1 Bft)
12.03.2018 13:33 11,3 C 90 % 990,3 hPa 0,0 l/m 0,0 km/h (0 Bft) N-NW 331 0 min 100 W/m 9,7 C 11,3 C 1,6 km/h (1 Bft)
12.03.2018 13:36 11,3 C 90 % 990,3 hPa 0,0 l/m 0,8 km/h (0 Bft) N-NW 331 0 min 114 W/m 9,7 C 11,3 C 3,2 km/h (1 Bft)
12.03.2018 13:39 11,4 C 91 % 990,3 hPa 0,0 l/m 2,3 km/h (1 Bft) N-NW 331 0 min 127 W/m 10,0 C 11,4 C 4,8 km/h (1 Bft)
12.03.2018 13:42 11,5 C 90 % 990,3 hPa 0,0 l/m 1,9 km/h (1 Bft) N-NW 331 0 min 156 W/m 9,9 C 11,5 C 4,8 km/h (1 Bft)
12.03.2018 13:45 11,6 C 90 % 990,3 hPa 0,0 l/m 4,9 km/h (1 Bft) W-SW 237 0 min 176 W/m 10,0 C 11,6 C 12,9 km/h (3 Bft)
12.03.2018 13:48 11,7 C 90 % 990,2 hPa 0,0 l/m 5,8 km/h (2 Bft) W-SW 258 0 min 190 W/m 10,1 C 11,7 C 9,7 km/h (2 Bft)
12.03.2018 13:51 11,7 C 89 % 990,3 hPa 0,0 l/m 4,2 km/h (1 Bft) W-SW 257 0 min 197 W/m 9,9 C 11,7 C 8,0 km/h (2 Bft)
12.03.2018 13:54 11,7 C 88 % 990,3 hPa 0,0 l/m 5,5 km/h (2 Bft) W-SW 250 0 min 197 W/m 9,8 C 11,7 C 11,3 km/h (2 Bft)
12.03.2018 13:57 11,6 C 88 % 990,3 hPa 0,0 l/m 5,5 km/h (2 Bft) W-SW 250 0 min 199 W/m 9,7 C 11,6 C 8,0 km/h (2 Bft)
12.03.2018 14:00 11,6 C 88 % 990,2 hPa 0,0 l/m 4,4 km/h (1 Bft) W-SW 248 0 min 199 W/m 9,7 C 11,6 C 8,0 km/h (2 Bft)
12.03.2018 14:03 11,6 C 88 % 990,2 hPa 0,0 l/m 4,0 km/h (1 Bft) W-SW 248 0 min 197 W/m 9,7 C 11,6 C 6,4 km/h (2 Bft)
12.03.2018 14:06 11,7 C 88 % 990,2 hPa 0,0 l/m 2,2 km/h (1 Bft) W-SW 248 0 min 188 W/m 9,8 C 11,7 C 4,8 km/h (1 Bft)
12.03.2018 14:09 11,7 C 89 % 990,2 hPa 0,0 l/m 2,1 km/h (1 Bft) W-SW 248 0 min 185 W/m 9,9 C 11,7 C 4,8 km/h (1 Bft)
12.03.2018 14:12 11,7 C 88 % 990,2 hPa 0,0 l/m 3,4 km/h (1 Bft) W-SW 248 0 min 183 W/m 9,8 C 11,7 C 6,4 km/h (2 Bft)
12.03.2018 14:15 11,7 C 88 % 990,3 hPa 0,0 l/m 2,2 km/h (1 Bft) W-SW 248 0 min 179 W/m 9,8 C 11,7 C 4,8 km/h (1 Bft)
12.03.2018 14:18 11,8 C 88 % 990,2 hPa 0,0 l/m 2,8 km/h (1 Bft) W-SW 248 0 min 176 W/m 9,9 C 11,8 C 4,8 km/h (1 Bft)
12.03.2018 14:21 11,9 C 88 % 990,2 hPa 0,0 l/m 2,3 km/h (1 Bft) W-SW 249 0 min 172 W/m 10,0 C 11,9 C 4,8 km/h (1 Bft)
12.03.2018 14:24 12,1 C 88 % 990,3 hPa 0,0 l/m 2,8 km/h (1 Bft) W-SW 249 0 min 171 W/m 10,2 C 12,1 C 4,8 km/h (1 Bft)
12.03.2018 14:27 12,1 C 87 % 990,3 hPa 0,0 l/m 4,4 km/h (1 Bft) W-SW 248 0 min 169 W/m 10,0 C 12,1 C 6,4 km/h (2 Bft)
12.03.2018 14:30 11,9 C 87 % 990,3 hPa 0,0 l/m 7,8 km/h (2 Bft) W 264 0 min 169 W/m 9,8 C 11,0 C 12,9 km/h (3 Bft)
12.03.2018 14:33 11,8 C 87 % 990,3 hPa 0,0 l/m 6,2 km/h (2 Bft) W 261 0 min 167 W/m 9,7 C 11,8 C 11,3 km/h (2 Bft)
12.03.2018 14:36 11,7 C 88 % 990,3 hPa 0,0 l/m 3,1 km/h (1 Bft) W 261 0 min 165 W/m 9,8 C 11,7 C 6,4 km/h (2 Bft)
12.03.2018 14:39 11,7 C 88 % 990,3 hPa 0,0 l/m 3,8 km/h (1 Bft) W 263 0 min 163 W/m 9,8 C 11,7 C 9,7 km/h (2 Bft)
12.03.2018 14:42 11,6 C 89 % 990,3 hPa 0,0 l/m 3,1 km/h (1 Bft) W 263 0 min 162 W/m 9,8 C 11,6 C 6,4 km/h (2 Bft)
12.03.2018 14:45 11,6 C 89 % 990,3 hPa 0,0 l/m 3,4 km/h (1 Bft) W 264 0 min 160 W/m 9,8 C 11,6 C 6,4 km/h (2 Bft)
12.03.2018 14:48 11,6 C 89 % 990,3 hPa 0,0 l/m 3,8 km/h (1 Bft) W 265 0 min 160 W/m 9,8 C 11,6 C 9,7 km/h (2 Bft)
12.03.2018 14:51 11,5 C 89 % 990,3 hPa 0,0 l/m 3,3 km/h (1 Bft) W 265 0 min 160 W/m 9,8 C 11,5 C 11,3 km/h (2 Bft)
12.03.2018 14:54 11,4 C 89 % 990,3 hPa 0,0 l/m 4,6 km/h (1 Bft) W 265 0 min 160 W/m 9,7 C 11,4 C 9,7 km/h (2 Bft)
12.03.2018 14:57 11,3 C 89 % 990,2 hPa 0,0 l/m 3,7 km/h (1 Bft) W 265 0 min 158 W/m 9,6 C 11,3 C 6,4 km/h (2 Bft)
12.03.2018 15:00 11,3 C 90 % 990,2 hPa 0,0 l/m 3,4 km/h (1 Bft) W 265 0 min 156 W/m 9,7 C 11,3 C 6,4 km/h (2 Bft)
12.03.2018 15:03 11,3 C 90 % 990,1 hPa 0,0 l/m 2,3 km/h (1 Bft) W 265 0 min 153 W/m 9,7 C 11,3 C 4,8 km/h (1 Bft)
12.03.2018 15:06 11,3 C 90 % 990,1 hPa 0,0 l/m 1,8 km/h (1 Bft) W 265 0 min 149 W/m 9,7 C 11,3 C 4,8 km/h (1 Bft)
12.03.2018 15:09 11,2 C 89 % 990,1 hPa 0,0 l/m 1,7 km/h (1 Bft) W 265 0 min 148 W/m 9,5 C 11,2 C 4,8 km/h (1 Bft)
12.03.2018 15:12 11,2 C 90 % 990,1 hPa 0,0 l/m 2,4 km/h (1 Bft) W 265 0 min 144 W/m 9,6 C 11,2 C 6,4 km/h (2 Bft)
12.03.2018 15:15 11,3 C 90 % 990,1 hPa 0,0 l/m 1,8 km/h (1 Bft) W 265 0 min 141 W/m 9,7 C 11,3 C 4,8 km/h (1 Bft)
12.03.2018 15:18 11,3 C 90 % 990,1 hPa 0,0 l/m 1,4 km/h (1 Bft) W 265 0 min 139 W/m 9,7 C 11,3 C 3,2 km/h (1 Bft)
12.03.2018 15:21 11,3 C 90 % 990,1 hPa 0,0 l/m 0,8 km/h (0 Bft) W 265 0 min 135 W/m 9,7 C 11,3 C 1,6 km/h (1 Bft)
12.03.2018 15:24 11,3 C 90 % 990,0 hPa 0,0 l/m 2,4 km/h (1 Bft) W 265 0 min 134 W/m 9,7 C 11,3 C 4,8 km/h (1 Bft)
12.03.2018 15:27 11,3 C 90 % 990,0 hPa 0,0 l/m 2,4 km/h (1 Bft) W 265 0 min 132 W/m 9,7 C 11,3 C 4,8 km/h (1 Bft)
12.03.2018 15:30 11,2 C 90 % 990,0 hPa 0,0 l/m 1,9 km/h (1 Bft) W 265 0 min 132 W/m 9,6 C 11,2 C 6,4 km/h (2 Bft)
12.03.2018 15:33 11,2 C 90 % 990,0 hPa 0,0 l/m 2,5 km/h (1 Bft) W 265 0 min 132 W/m 9,6 C 11,2 C 4,8 km/h (1 Bft)
12.03.2018 15:36 11,1 C 90 % 990,0 hPa 0,0 l/m 2,8 km/h (1 Bft) W 265 0 min 130 W/m 9,5 C 11,1 C 4,8 km/h (1 Bft)
12.03.2018 15:39 11,1 C 90 % 990,0 hPa 0,0 l/m 2,4 km/h (1 Bft) W 265 0 min 128 W/m 9,5 C 11,1 C 4,8 km/h (1 Bft)
12.03.2018 15:42 11,1 C 90 % 989,9 hPa 0,0 l/m 3,2 km/h (1 Bft) W 265 0 min 128 W/m 9,5 C 11,1 C 4,8 km/h (1 Bft)
12.03.2018 15:45 11,0 C 90 % 989,9 hPa 0,0 l/m 0,7 km/h (0 Bft) W 265 0 min 125 W/m 9,4 C 11,0 C 3,2 km/h (1 Bft)
12.03.2018 15:48 11,1 C 90 % 989,9 hPa 0,0 l/m 1,2 km/h (1 Bft) W 265 0 min 123 W/m 9,5 C 11,1 C 3,2 km/h (1 Bft)
12.03.2018 15:51 11,1 C 90 % 989,9 hPa 0,0 l/m 1,8 km/h (1 Bft) W 265 0 min 116 W/m 9,5 C 11,1 C 3,2 km/h (1 Bft)
12.03.2018 15:54 11,1 C 90 % 989,9 hPa 0,0 l/m 2,6 km/h (1 Bft) W 265 0 min 107 W/m 9,5 C 11,1 C 4,8 km/h (1 Bft)
12.03.2018 15:57 11,1 C 90 % 989,9 hPa 0,0 l/m 0,8 km/h (0 Bft) W 265 0 min 97 W/m 9,5 C 11,1 C 3,2 km/h (1 Bft)
12.03.2018 16:00 11,1 C 91 % 989,9 hPa 0,0 l/m 0,6 km/h (0 Bft) W 265 0 min 88 W/m 9,7 C 11,1 C 1,6 km/h (1 Bft)
12.03.2018 16:03 11,0 C 91 % 989,8 hPa 0,0 l/m 1,6 km/h (1 Bft) W 265 0 min 84 W/m 9,6 C 11,0 C 3,2 km/h (1 Bft)
12.03.2018 16:06 10,9 C 91 % 989,8 hPa 0,0 l/m 1,1 km/h (1 Bft) W 265 0 min 84 W/m 9,5 C 10,9 C 3,2 km/h (1 Bft)
12.03.2018 16:09 10,9 C 91 % 989,9 hPa 0,0 l/m 1,1 km/h (1 Bft) W 265 0 min 83 W/m 9,5 C 10,9 C 3,2 km/h (1 Bft)
12.03.2018 16:12 10,9 C 91 % 989,9 hPa 0,0 l/m 1,4 km/h (1 Bft) W 265 0 min 83 W/m 9,5 C 10,9 C 3,2 km/h (1 Bft)
12.03.2018 16:15 10,9 C 91 % 989,9 hPa 0,0 l/m 0,8 km/h (0 Bft) W 265 0 min 81 W/m 9,5 C 10,9 C 3,2 km/h (1 Bft)
12.03.2018 16:18 10,8 C 91 % 989,9 hPa 0,0 l/m 0,7 km/h (0 Bft) W 265 0 min 79 W/m 9,4 C 10,8 C 3,2 km/h (1 Bft)
12.03.2018 16:21 10,9 C 91 % 989,9 hPa 0,0 l/m 0,8 km/h (0 Bft) W 265 0 min 72 W/m 9,5 C 10,9 C 1,6 km/h (1 Bft)
12.03.2018 16:24 10,8 C 91 % 989,8 hPa 0,0 l/m 0,3 km/h (0 Bft) W 265 0 min 67 W/m 9,4 C 10,8 C 1,6 km/h (1 Bft)
12.03.2018 16:27 10,8 C 91 % 989,9 hPa 0,0 l/m 1,6 km/h (1 Bft) W 265 0 min 65 W/m 9,4 C 10,8 C 3,2 km/h (1 Bft)
12.03.2018 16:30 10,8 C 91 % 989,9 hPa 0,0 l/m 0,6 km/h (0 Bft) W 265 0 min 63 W/m 9,4 C 10,8 C 3,2 km/h (1 Bft)
12.03.2018 16:33 10,8 C 91 % 990,0 hPa 0,0 l/m 1,0 km/h (0 Bft) W 265 0 min 62 W/m 9,4 C 10,8 C 3,2 km/h (1 Bft)
12.03.2018 16:36 10,8 C 91 % 989,9 hPa 0,0 l/m 0,0 km/h (0 Bft) W 265 0 min 58 W/m 9,4 C 10,8 C 0,0 km/h (0 Bft)
12.03.2018 16:39 10,8 C 91 % 989,9 hPa 0,0 l/m 0,7 km/h (0 Bft) W 265 0 min 54 W/m 9,4 C 10,8 C 3,2 km/h (1 Bft)
12.03.2018 16:42 10,8 C 91 % 989,9 hPa 0,0 l/m 0,6 km/h (0 Bft) W 265 0 min 49 W/m 9,4 C 10,8 C 1,6 km/h (1 Bft)
12.03.2018 16:45 10,8 C 91 % 989,9 hPa 0,0 l/m 1,3 km/h (1 Bft) W 265 0 min 47 W/m 9,4 C 10,8 C 4,8 km/h (1 Bft)
12.03.2018 16:48 10,8 C 92 % 989,9 hPa 0,0 l/m 2,7 km/h (1 Bft) W 265 0 min 42 W/m 9,6 C 10,8 C 4,8 km/h (1 Bft)
12.03.2018 16:51 10,8 C 92 % 989,9 hPa 0,0 l/m 2,6 km/h (1 Bft) W 265 0 min 42 W/m 9,6 C 10,8 C 4,8 km/h (1 Bft)
12.03.2018 16:54 10,8 C 92 % 990,0 hPa 0,0 l/m 1,4 km/h (1 Bft) W 265 0 min 42 W/m 9,6 C 10,8 C 4,8 km/h (1 Bft)
12.03.2018 16:57 10,7 C 91 % 990,0 hPa 0,0 l/m 3,8 km/h (1 Bft) W 265 0 min 44 W/m 9,3 C 10,7 C 6,4 km/h (2 Bft)
12.03.2018 17:00 10,6 C 91 % 990,0 hPa 0,0 l/m 2,1 km/h (1 Bft) W 265 0 min 46 W/m 9,2 C 10,6 C 4,8 km/h (1 Bft)
12.03.2018 17:03 10,6 C 92 % 990,0 hPa 0,0 l/m 1,3 km/h (1 Bft) W 265 0 min 47 W/m 9,4 C 10,6 C 4,8 km/h (1 Bft)
12.03.2018 17:06 10,6 C 92 % 990,0 hPa 0,0 l/m 2,5 km/h (1 Bft) W 265 0 min 47 W/m 9,4 C 10,6 C 4,8 km/h (1 Bft)
12.03.2018 17:09 10,5 C 92 % 990,0 hPa 0,0 l/m 2,7 km/h (1 Bft) W 265 0 min 47 W/m 9,3 C 10,5 C 6,4 km/h (2 Bft)
12.03.2018 17:12 10,4 C 92 % 990,0 hPa 0,0 l/m 3,9 km/h (1 Bft) W 265 0 min 46 W/m 9,2 C 10,4 C 6,4 km/h (2 Bft)
12.03.2018 17:15 10,3 C 92 % 990,1 hPa 0,0 l/m 4,9 km/h (1 Bft) W 265 0 min 44 W/m 9,1 C 10,3 C 6,4 km/h (2 Bft)
12.03.2018 17:18 10,3 C 92 % 990,2 hPa 0,0 l/m 4,9 km/h (1 Bft) W 265 0 min 42 W/m 9,1 C 10,3 C 9,7 km/h (2 Bft)
12.03.2018 17:21 10,2 C 92 % 990,2 hPa 0,0 l/m 3,8 km/h (1 Bft) W 265 0 min 40 W/m 9,0 C 10,2 C 9,7 km/h (2 Bft)
12.03.2018 17:24 10,2 C 92 % 990,1 hPa 0,0 l/m 2,6 km/h (1 Bft) W 265 0 min 37 W/m 9,0 C 10,2 C 6,4 km/h (2 Bft)
12.03.2018 17:27 10,2 C 92 % 990,1 hPa 0,0 l/m 2,6 km/h (1 Bft) W 265 0 min 35 W/m 9,0 C 10,2 C 4,8 km/h (1 Bft)
12.03.2018 17:30 10,2 C 92 % 990,2 hPa 0,0 l/m 3,8 km/h (1 Bft) W 265 0 min 32 W/m 9,0 C 10,2 C 6,4 km/h (2 Bft)
12.03.2018 17:33 10,1 C 92 % 990,2 hPa 0,0 l/m 3,3 km/h (1 Bft) W 265 0 min 28 W/m 8,9 C 10,1 C 9,7 km/h (2 Bft)
12.03.2018 17:36 10,1 C 93 % 990,2 hPa 0,0 l/m 3,0 km/h (1 Bft) W 265 0 min 26 W/m 9,0 C 10,1 C 4,8 km/h (1 Bft)
12.03.2018 17:39 10,1 C 93 % 990,2 hPa 0,0 l/m 3,2 km/h (1 Bft) W 265 0 min 23 W/m 9,0 C 10,1 C 6,4 km/h (2 Bft)
12.03.2018 17:42 10,0 C 93 % 990,2 hPa 0,0 l/m 3,0 km/h (1 Bft) W 265 0 min 21 W/m 8,9 C 10,0 C 6,4 km/h (2 Bft)
12.03.2018 17:45 9,9 C 93 % 990,2 hPa 0,0 l/m 2,5 km/h (1 Bft) W 265 0 min 19 W/m 8,8 C 9,9 C 4,8 km/h (1 Bft)
12.03.2018 17:48 9,9 C 93 % 990,2 hPa 0,0 l/m 2,1 km/h (1 Bft) W 265 0 min 16 W/m 8,8 C 9,9 C 4,8 km/h (1 Bft)
12.03.2018 17:51 9,9 C 93 % 990,3 hPa 0,0 l/m 2,3 km/h (1 Bft) W 265 0 min 14 W/m 8,8 C 9,9 C 4,8 km/h (1 Bft)
12.03.2018 17:54 9,8 C 93 % 990,2 hPa 0,0 l/m 1,0 km/h (0 Bft) W 265 0 min 11 W/m 8,7 C 9,8 C 1,6 km/h (1 Bft)
12.03.2018 17:57 9,8 C 94 % 990,2 hPa 0,0 l/m 0,8 km/h (0 Bft) W 265 0 min 9 W/m 8,9 C 9,8 C 3,2 km/h (1 Bft)
12.03.2018 18:00 9,8 C 94 % 990,2 hPa 0,0 l/m 0,3 km/h (0 Bft) W 265 0 min 7 W/m 8,9 C 9,8 C 1,6 km/h (1 Bft)
12.03.2018 18:03 9,8 C 94 % 990,3 hPa 0,0 l/m 0,1 km/h (0 Bft) W 265 0 min 7 W/m 8,9 C 9,8 C 1,6 km/h (1 Bft)
12.03.2018 18:06 9,7 C 94 % 990,3 hPa 0,0 l/m 0,0 km/h (0 Bft) W 265 0 min 5 W/m 8,8 C 9,7 C 0,0 km/h (0 Bft)
12.03.2018 18:09 9,7 C 94 % 990,2 hPa 0,0 l/m 0,0 km/h (0 Bft) W 265 0 min 5 W/m 8,8 C 9,7 C 0,0 km/h (0 Bft)
12.03.2018 18:12 9,7 C 94 % 990,3 hPa 0,0 l/m 0,0 km/h (0 Bft) W 265 0 min 5 W/m 8,8 C 9,7 C 0,0 km/h (0 Bft)
12.03.2018 18:15 9,6 C 94 % 990,3 hPa 0,0 l/m 0,0 km/h (0 Bft) W 265 0 min 0 W/m 8,7 C 9,6 C 0,0 km/h (0 Bft)
12.03.2018 18:18 9,6 C 94 % 990,3 hPa 0,0 l/m 0,0 km/h (0 Bft) W 265 0 min 0 W/m 8,7 C 9,6 C 0,0 km/h (0 Bft)
12.03.2018 18:21 9,6 C 94 % 990,3 hPa 0,0 l/m 0,0 km/h (0 Bft) W 265 0 min 0 W/m 8,7 C 9,6 C 0,0 km/h (0 Bft)
12.03.2018 18:24 9,6 C 94 % 990,3 hPa 0,0 l/m 0,0 km/h (0 Bft) W 265 0 min 0 W/m 8,7 C 9,6 C 0,0 km/h (0 Bft)
12.03.2018 18:27 9,5 C 94 % 990,3 hPa 0,0 l/m 0,0 km/h (0 Bft) W 265 0 min 0 W/m 8,6 C 9,5 C 0,0 km/h (0 Bft)
12.03.2018 18:30 9,4 C 94 % 990,3 hPa 0,0 l/m 0,0 km/h (0 Bft) W 265 0 min 0 W/m 8,5 C 9,4 C 0,0 km/h (0 Bft)
12.03.2018 18:33 9,4 C 95 % 990,3 hPa 0,0 l/m 0,0 km/h (0 Bft) W 265 0 min 0 W/m 8,6 C 9,4 C 0,0 km/h (0 Bft)
12.03.2018 18:36 9,4 C 95 % 990,4 hPa 0,0 l/m 0,0 km/h (0 Bft) W 265 0 min 0 W/m 8,6 C 9,4 C 0,0 km/h (0 Bft)
12.03.2018 18:39 9,4 C 95 % 990,4 hPa 0,0 l/m 0,0 km/h (0 Bft) W 265 0 min 0 W/m 8,6 C 9,4 C 0,0 km/h (0 Bft)
12.03.2018 18:42 9,4 C 95 % 990,3 hPa 0,0 l/m 0,0 km/h (0 Bft) W 265 0 min 0 W/m 8,6 C 9,4 C 0,0 km/h (0 Bft)
12.03.2018 18:45 9,3 C 95 % 990,4 hPa 0,0 l/m 0,0 km/h (0 Bft) W 265 0 min 0 W/m 8,5 C 9,3 C 0,0 km/h (0 Bft)
12.03.2018 18:48 9,3 C 95 % 990,3 hPa 0,0 l/m 0,0 km/h (0 Bft) W 265 0 min 0 W/m 8,5 C 9,3 C 0,0 km/h (0 Bft)
12.03.2018 18:51 9,2 C 95 % 990,4 hPa 0,0 l/m 0,0 km/h (0 Bft) W 265 0 min 0 W/m 8,4 C 9,2 C 0,0 km/h (0 Bft)
12.03.2018 18:54 9,2 C 95 % 990,5 hPa 0,0 l/m 0,0 km/h (0 Bft) W 265 0 min 0 W/m 8,4 C 9,2 C 0,0 km/h (0 Bft)
12.03.2018 18:57 9,2 C 95 % 990,4 hPa 0,0 l/m 0,0 km/h (0 Bft) W 265 0 min 0 W/m 8,4 C 9,2 C 0,0 km/h (0 Bft)
12.03.2018 19:00 9,2 C 95 % 990,4 hPa 0,0 l/m 0,0 km/h (0 Bft) W 265 0 min 0 W/m 8,4 C 9,2 C 0,0 km/h (0 Bft)
12.03.2018 19:03 9,2 C 96 % 990,4 hPa 0,0 l/m 0,0 km/h (0 Bft) W 265 0 min 0 W/m 8,6 C 9,2 C 0,0 km/h (0 Bft)
12.03.2018 19:06 9,2 C 96 % 990,4 hPa 0,0 l/m 0,0 km/h (0 Bft) W 265 0 min 0 W/m 8,6 C 9,2 C 0,0 km/h (0 Bft)
12.03.2018 19:09 9,2 C 96 % 990,5 hPa 0,0 l/m 0,0 km/h (0 Bft) W 265 0 min 0 W/m 8,6 C 9,2 C 0,0 km/h (0 Bft)
12.03.2018 19:12 9,1 C 96 % 990,5 hPa 0,0 l/m 0,0 km/h (0 Bft) W 265 0 min 0 W/m 8,5 C 9,1 C 0,0 km/h (0 Bft)
12.03.2018 19:15 9,1 C 96 % 990,5 hPa 0,0 l/m 0,0 km/h (0 Bft) W 265 0 min 0 W/m 8,5 C 9,1 C 0,0 km/h (0 Bft)
12.03.2018 19:18 9,1 C 96 % 990,5 hPa 0,0 l/m 0,0 km/h (0 Bft) W 265 0 min 0 W/m 8,5 C 9,1 C 0,0 km/h (0 Bft)
12.03.2018 19:21 9,1 C 96 % 990,6 hPa 0,0 l/m 0,0 km/h (0 Bft) W 265 0 min 0 W/m 8,5 C 9,1 C 0,0 km/h (0 Bft)
12.03.2018 19:24 9,0 C 96 % 990,6 hPa 0,0 l/m 0,0 km/h (0 Bft) W 265 0 min 0 W/m 8,4 C 9,0 C 0,0 km/h (0 Bft)
12.03.2018 19:27 9,0 C 96 % 990,6 hPa 0,0 l/m 0,0 km/h (0 Bft) W 265 0 min 0 W/m 8,4 C 9,0 C 0,0 km/h (0 Bft)
12.03.2018 19:30 9,0 C 96 % 990,6 hPa 0,0 l/m 0,0 km/h (0 Bft) W 265 0 min 0 W/m 8,4 C 9,0 C 0,0 km/h (0 Bft)
12.03.2018 19:33 9,0 C 96 % 990,6 hPa 0,0 l/m 0,0 km/h (0 Bft) W 265 0 min 0 W/m 8,4 C 9,0 C 0,0 km/h (0 Bft)
12.03.2018 19:36 9,0 C 96 % 990,6 hPa 0,0 l/m 0,0 km/h (0 Bft) W 265 0 min 0 W/m 8,4 C 9,0 C 0,0 km/h (0 Bft)
12.03.2018 19:39 9,0 C 96 % 990,6 hPa 0,0 l/m 0,0 km/h (0 Bft) W 265 0 min 0 W/m 8,4 C 9,0 C 0,0 km/h (0 Bft)
12.03.2018 19:42 8,9 C 96 % 990,6 hPa 0,0 l/m 0,0 km/h (0 Bft) W 265 0 min 0 W/m 8,3 C 8,9 C 0,0 km/h (0 Bft)
12.03.2018 19:45 8,9 C 96 % 990,6 hPa 0,0 l/m 0,0 km/h (0 Bft) W 265 0 min 0 W/m 8,3 C 8,9 C 0,0 km/h (0 Bft)
12.03.2018 19:48 8,9 C 96 % 990,5 hPa 0,0 l/m 0,0 km/h (0 Bft) W 265 0 min 0 W/m 8,3 C 8,9 C 0,0 km/h (0 Bft)
12.03.2018 19:51 8,8 C 96 % 990,5 hPa 0,0 l/m 0,0 km/h (0 Bft) W 265 0 min 0 W/m 8,2 C 8,8 C 0,0 km/h (0 Bft)
12.03.2018 19:54 8,8 C 96 % 990,5 hPa 0,0 l/m 0,0 km/h (0 Bft) W 265 0 min 0 W/m 8,2 C 8,8 C 0,0 km/h (0 Bft)
12.03.2018 19:57 8,8 C 96 % 990,4 hPa 0,0 l/m 0,0 km/h (0 Bft) W 265 0 min 0 W/m 8,2 C 8,8 C 0,0 km/h (0 Bft)
12.03.2018 20:00 8,8 C 96 % 990,4 hPa 0,0 l/m 0,0 km/h (0 Bft) W 265 0 min 0 W/m 8,2 C 8,8 C 0,0 km/h (0 Bft)
12.03.2018 20:03 8,8 C 96 % 990,5 hPa 0,0 l/m 0,0 km/h (0 Bft) W 265 0 min 0 W/m 8,2 C 8,8 C 0,0 km/h (0 Bft)
12.03.2018 20:06 8,8 C 96 % 990,4 hPa 0,0 l/m 0,0 km/h (0 Bft) W 265 0 min 0 W/m 8,2 C 8,8 C 0,0 km/h (0 Bft)
12.03.2018 20:09 8,7 C 96 % 990,4 hPa 0,0 l/m 0,0 km/h (0 Bft) W 265 0 min 0 W/m 8,1 C 8,7 C 0,0 km/h (0 Bft)
12.03.2018 20:12 8,7 C 96 % 990,4 hPa 0,2 l/m 0,0 km/h (0 Bft) W 265 0 min 0 W/m 8,1 C 8,7 C 0,0 km/h (0 Bft)
12.03.2018 20:15 8,7 C 96 % 990,5 hPa 0,0 l/m 0,0 km/h (0 Bft) W 265 0 min 0 W/m 8,1 C 8,7 C 0,0 km/h (0 Bft)
12.03.2018 20:18 8,7 C 97 % 990,5 hPa 0,0 l/m 0,0 km/h (0 Bft) W 265 0 min 0 W/m 8,3 C 8,7 C 0,0 km/h (0 Bft)
12.03.2018 20:21 8,7 C 96 % 990,5 hPa 0,0 l/m 0,0 km/h (0 Bft) W 265 0 min 0 W/m 8,1 C 8,7 C 0,0 km/h (0 Bft)
12.03.2018 20:24 8,7 C 97 % 990,5 hPa 0,0 l/m 0,0 km/h (0 Bft) W 265 0 min 0 W/m 8,3 C 8,7 C 0,0 km/h (0 Bft)
12.03.2018 20:27 8,8 C 97 % 990,5 hPa 0,0 l/m 0,0 km/h (0 Bft) W 265 0 min 0 W/m 8,4 C 8,8 C 0,0 km/h (0 Bft)
12.03.2018 20:30 8,8 C 97 % 990,5 hPa 0,0 l/m 0,0 km/h (0 Bft) W 265 0 min 0 W/m 8,4 C 8,8 C 0,0 km/h (0 Bft)
12.03.2018 20:33 8,7 C 97 % 990,6 hPa 0,0 l/m 0,0 km/h (0 Bft) W 265 0 min 0 W/m 8,3 C 8,7 C 0,0 km/h (0 Bft)
12.03.2018 20:36 8,7 C 97 % 990,6 hPa 0,0 l/m 0,0 km/h (0 Bft) W 265 0 min 0 W/m 8,3 C 8,7 C 0,0 km/h (0 Bft)
12.03.2018 20:39 8,7 C 97 % 990,6 hPa 0,0 l/m 0,0 km/h (0 Bft) W 265 0 min 0 W/m 8,3 C 8,7 C 0,0 km/h (0 Bft)
12.03.2018 20:42 8,6 C 97 % 990,6 hPa 0,0 l/m 0,0 km/h (0 Bft) W 265 0 min 0 W/m 8,2 C 8,6 C 0,0 km/h (0 Bft)
12.03.2018 20:45 8,5 C 96 % 990,6 hPa 0,0 l/m 0,0 km/h (0 Bft) W 265 0 min 0 W/m 7,9 C 8,5 C 0,0 km/h (0 Bft)
12.03.2018 20:48 8,5 C 97 % 990,6 hPa 0,0 l/m 0,4 km/h (0 Bft) W 265 0 min 0 W/m 8,1 C 8,5 C 3,2 km/h (1 Bft)
12.03.2018 20:51 8,5 C 97 % 990,6 hPa 0,0 l/m 0,5 km/h (0 Bft) W 265 0 min 0 W/m 8,1 C 8,5 C 3,2 km/h (1 Bft)
12.03.2018 20:54 8,4 C 97 % 990,7 hPa 0,0 l/m 0,5 km/h (0 Bft) W 265 0 min 0 W/m 8,0 C 8,4 C 1,6 km/h (1 Bft)
12.03.2018 20:57 8,3 C 97 % 990,7 hPa 0,0 l/m 0,3 km/h (0 Bft) W 265 0 min 0 W/m 7,9 C 8,3 C 1,6 km/h (1 Bft)
12.03.2018 21:00 8,3 C 97 % 990,8 hPa 0,0 l/m 0,2 km/h (0 Bft) W 265 0 min 0 W/m 7,9 C 8,3 C 1,6 km/h (1 Bft)
12.03.2018 21:03 8,2 C 97 % 990,8 hPa 0,0 l/m 0,0 km/h (0 Bft) W 265 0 min 0 W/m 7,8 C 8,2 C 1,6 km/h (1 Bft)
12.03.2018 21:06 8,1 C 96 % 990,8 hPa 0,0 l/m 0,0 km/h (0 Bft) W 265 0 min 0 W/m 7,5 C 8,1 C 0,0 km/h (0 Bft)
12.03.2018 21:09 7,8 C 96 % 990,9 hPa 0,0 l/m 0,1 km/h (0 Bft) W 265 0 min 0 W/m 7,2 C 7,8 C 1,6 km/h (1 Bft)
12.03.2018 21:12 7,7 C 97 % 990,9 hPa 0,0 l/m 0,0 km/h (0 Bft) W 265 0 min 0 W/m 7,3 C 7,7 C 1,6 km/h (1 Bft)
12.03.2018 21:15 7,6 C 96 % 990,9 hPa 0,0 l/m 0,0 km/h (0 Bft) W 265 0 min 0 W/m 7,0 C 7,6 C 1,6 km/h (1 Bft)
12.03.2018 21:18 7,6 C 97 % 990,9 hPa 0,0 l/m 0,2 km/h (0 Bft) W 265 0 min 0 W/m 7,2 C 7,6 C 1,6 km/h (1 Bft)
12.03.2018 21:21 7,6 C 97 % 990,9 hPa 0,0 l/m 0,3 km/h (0 Bft) W 265 0 min 0 W/m 7,2 C 7,6 C 1,6 km/h (1 Bft)
12.03.2018 21:24 7,6 C 97 % 990,9 hPa 0,0 l/m 0,0 km/h (0 Bft) W 265 0 min 0 W/m 7,2 C 7,6 C 1,6 km/h (1 Bft)
12.03.2018 21:27 7,6 C 97 % 990,9 hPa 0,0 l/m 0,4 km/h (0 Bft) W 265 0 min 0 W/m 7,2 C 7,6 C 3,2 km/h (1 Bft)
12.03.2018 21:30 7,6 C 97 % 990,9 hPa 0,0 l/m 1,1 km/h (1 Bft) W 265 0 min 0 W/m 7,2 C 7,6 C 3,2 km/h (1 Bft)
12.03.2018 21:33 7,6 C 97 % 990,9 hPa 0,0 l/m 0,5 km/h (0 Bft) W 265 0 min 0 W/m 7,2 C 7,6 C 1,6 km/h (1 Bft)
12.03.2018 21:36 7,7 C 97 % 990,9 hPa 0,0 l/m 1,2 km/h (1 Bft) W 265 0 min 0 W/m 7,3 C 7,7 C 3,2 km/h (1 Bft)
12.03.2018 21:39 7,7 C 97 % 990,9 hPa 0,0 l/m 0,5 km/h (0 Bft) W 265 0 min 0 W/m 7,3 C 7,7 C 3,2 km/h (1 Bft)
12.03.2018 21:42 7,8 C 97 % 990,9 hPa 0,0 l/m 0,0 km/h (0 Bft) W 265 0 min 0 W/m 7,4 C 7,8 C 0,0 km/h (0 Bft)
12.03.2018 21:45 7,9 C 97 % 991,0 hPa 0,0 l/m 0,0 km/h (0 Bft) W 265 0 min 0 W/m 7,5 C 7,9 C 0,0 km/h (0 Bft)
12.03.2018 21:48 8,0 C 97 % 991,0 hPa 0,0 l/m 0,0 km/h (0 Bft) W 265 0 min 0 W/m 7,6 C 8,0 C 0,0 km/h (0 Bft)
12.03.2018 21:51 8,0 C 97 % 991,0 hPa 0,0 l/m 0,0 km/h (0 Bft) W 265 0 min 0 W/m 7,6 C 8,0 C 0,0 km/h (0 Bft)
12.03.2018 21:54 8,1 C 97 % 991,0 hPa 0,0 l/m 0,0 km/h (0 Bft) W 265 0 min 0 W/m 7,7 C 8,1 C 0,0 km/h (0 Bft)
12.03.2018 21:57 8,0 C 97 % 991,0 hPa 0,0 l/m 0,0 km/h (0 Bft) W 265 0 min 0 W/m 7,6 C 8,0 C 0,0 km/h (0 Bft)
12.03.2018 22:00 8,1 C 97 % 991,1 hPa 0,0 l/m 0,0 km/h (0 Bft) W 265 0 min 0 W/m 7,7 C 8,1 C 0,0 km/h (0 Bft)
12.03.2018 22:03 8,2 C 97 % 991,2 hPa 0,0 l/m 0,0 km/h (0 Bft) W 265 0 min 0 W/m 7,8 C 8,2 C 0,0 km/h (0 Bft)
12.03.2018 22:06 8,3 C 97 % 991,2 hPa 0,0 l/m 0,0 km/h (0 Bft) W 265 0 min 0 W/m 7,9 C 8,3 C 0,0 km/h (0 Bft)
12.03.2018 22:09 8,4 C 97 % 991,3 hPa 0,0 l/m 1,0 km/h (0 Bft) SW 234 0 min 0 W/m 8,0 C 8,4 C 8,0 km/h (2 Bft)
12.03.2018 22:12 8,7 C 98 % 991,3 hPa 0,0 l/m 4,1 km/h (1 Bft) SW 234 0 min 0 W/m 8,4 C 8,7 C 8,0 km/h (2 Bft)
12.03.2018 22:15 8,8 C 98 % 991,3 hPa 0,0 l/m 5,3 km/h (1 Bft) SW 233 0 min 0 W/m 8,5 C 8,8 C 9,7 km/h (2 Bft)
12.03.2018 22:18 8,9 C 98 % 991,4 hPa 0,0 l/m 4,8 km/h (1 Bft) W-SW 237 0 min 0 W/m 8,6 C 8,9 C 6,4 km/h (2 Bft)
12.03.2018 22:21 8,8 C 97 % 991,4 hPa 0,0 l/m 5,6 km/h (2 Bft) W-SW 237 0 min 0 W/m 8,4 C 8,8 C 9,7 km/h (2 Bft)
12.03.2018 22:24 8,7 C 97 % 991,4 hPa 0,0 l/m 10,9 km/h (2 Bft) W-SW 245 0 min 0 W/m 8,3 C 5,6 C 22,5 km/h (4 Bft)
12.03.2018 22:27 8,4 C 97 % 991,5 hPa 0,0 l/m 8,9 km/h (2 Bft) W 268 0 min 0 W/m 8,0 C 6,5 C 16,1 km/h (3 Bft)
12.03.2018 22:30 8,0 C 97 % 991,5 hPa 0,0 l/m 7,3 km/h (2 Bft) W 276 0 min 0 W/m 7,6 C 7,3 C 12,9 km/h (3 Bft)
12.03.2018 22:33 7,6 C 96 % 991,5 hPa 0,0 l/m 4,8 km/h (1 Bft) W 272 0 min 0 W/m 7,0 C 7,6 C 9,7 km/h (2 Bft)
12.03.2018 22:36 7,3 C 97 % 991,5 hPa 0,0 l/m 3,6 km/h (1 Bft) W 272 0 min 0 W/m 6,9 C 7,3 C 6,4 km/h (2 Bft)
12.03.2018 22:39 7,2 C 97 % 991,5 hPa 0,0 l/m 4,8 km/h (1 Bft) W 271 0 min 0 W/m 6,8 C 7,2 C 9,7 km/h (2 Bft)
12.03.2018 22:42 7,2 C 97 % 991,5 hPa 0,0 l/m 2,5 km/h (1 Bft) NW 307 0 min 0 W/m 6,8 C 7,2 C 8,0 km/h (2 Bft)
12.03.2018 22:45 6,9 C 97 % 991,6 hPa 0,2 l/m 4,1 km/h (1 Bft) NW 309 0 min 0 W/m 6,5 C 6,9 C 8,0 km/h (2 Bft)
12.03.2018 22:48 6,7 C 96 % 991,5 hPa 0,2 l/m 3,1 km/h (1 Bft) NW 309 0 min 0 W/m 6,1 C 6,7 C 6,4 km/h (2 Bft)
12.03.2018 22:51 6,3 C 97 % 991,5 hPa 0,0 l/m 3,8 km/h (1 Bft) NW 319 0 min 0 W/m 5,9 C 6,3 C 8,0 km/h (2 Bft)
12.03.2018 22:54 6,1 C 97 % 991,5 hPa 0,2 l/m 3,1 km/h (1 Bft) NW 319 0 min 0 W/m 5,7 C 6,1 C 6,4 km/h (2 Bft)
12.03.2018 22:57 5,9 C 97 % 991,5 hPa 0,0 l/m 2,9 km/h (1 Bft) NW 319 0 min 0 W/m 5,5 C 5,9 C 4,8 km/h (1 Bft)
12.03.2018 23:00 5,9 C 97 % 991,5 hPa 0,2 l/m 2,9 km/h (1 Bft) NW 319 0 min 0 W/m 5,5 C 5,9 C 4,8 km/h (1 Bft)
12.03.2018 23:03 5,9 C 97 % 991,4 hPa 0,2 l/m 4,2 km/h (1 Bft) NW 323 0 min 0 W/m 5,5 C 5,9 C 6,4 km/h (2 Bft)
12.03.2018 23:06 5,8 C 97 % 991,3 hPa 0,2 l/m 3,8 km/h (1 Bft) NW 323 0 min 0 W/m 5,4 C 5,8 C 6,4 km/h (2 Bft)
12.03.2018 23:09 5,8 C 97 % 991,4 hPa 0,0 l/m 5,9 km/h (2 Bft) NW 325 0 min 0 W/m 5,4 C 5,8 C 12,9 km/h (3 Bft)
12.03.2018 23:12 5,8 C 97 % 991,4 hPa 0,2 l/m 5,1 km/h (1 Bft) N-NW 331 0 min 0 W/m 5,4 C 5,8 C 9,7 km/h (2 Bft)
12.03.2018 23:15 5,7 C 97 % 991,4 hPa 0,0 l/m 1,9 km/h (1 Bft) N-NW 331 0 min 0 W/m 5,3 C 5,7 C 4,8 km/h (1 Bft)
12.03.2018 23:18 5,6 C 97 % 991,3 hPa 0,0 l/m 1,8 km/h (1 Bft) N-NW 331 0 min 0 W/m 5,2 C 5,6 C 4,8 km/h (1 Bft)
12.03.2018 23:21 5,4 C 97 % 991,3 hPa 0,0 l/m 1,4 km/h (1 Bft) N-NW 331 0 min 0 W/m 5,0 C 5,4 C 3,2 km/h (1 Bft)
12.03.2018 23:24 5,4 C 97 % 991,3 hPa 0,0 l/m 0,4 km/h (0 Bft) N-NW 331 0 min 0 W/m 5,0 C 5,4 C 1,6 km/h (1 Bft)
12.03.2018 23:27 5,4 C 97 % 991,2 hPa 0,0 l/m 1,2 km/h (1 Bft) N-NW 331 0 min 0 W/m 5,0 C 5,4 C 3,2 km/h (1 Bft)
12.03.2018 23:30 5,4 C 97 % 991,2 hPa 0,0 l/m 1,6 km/h (1 Bft) N-NW 331 0 min 0 W/m 5,0 C 5,4 C 3,2 km/h (1 Bft)
12.03.2018 23:33 5,4 C 97 % 991,2 hPa 0,0 l/m 1,7 km/h (1 Bft) N-NW 331 0 min 0 W/m 5,0 C 5,4 C 3,2 km/h (1 Bft)
12.03.2018 23:36 5,4 C 97 % 991,1 hPa 0,0 l/m 1,4 km/h (1 Bft) N-NW 331 0 min 0 W/m 5,0 C 5,4 C 4,8 km/h (1 Bft)
12.03.2018 23:39 5,3 C 97 % 991,1 hPa 0,0 l/m 0,6 km/h (0 Bft) N-NW 331 0 min 0 W/m 4,9 C 5,3 C 3,2 km/h (1 Bft)
12.03.2018 23:42 5,2 C 97 % 991,1 hPa 0,0 l/m 1,7 km/h (1 Bft) N-NW 331 0 min 0 W/m 4,8 C 5,2 C 4,8 km/h (1 Bft)
12.03.2018 23:45 5,2 C 97 % 991,0 hPa 0,0 l/m 2,3 km/h (1 Bft) N-NW 331 0 min 0 W/m 4,8 C 5,2 C 6,4 km/h (2 Bft)
12.03.2018 23:48 5,1 C 97 % 991,1 hPa 0,0 l/m 1,2 km/h (1 Bft) N-NW 331 0 min 0 W/m 4,7 C 5,1 C 3,2 km/h (1 Bft)
12.03.2018 23:51 5,1 C 97 % 991,1 hPa 0,0 l/m 0,5 km/h (0 Bft) N-NW 331 0 min 0 W/m 4,7 C 5,1 C 3,2 km/h (1 Bft)
12.03.2018 23:54 5,1 C 97 % 991,1 hPa 0,0 l/m 0,5 km/h (0 Bft) N-NW 331 0 min 0 W/m 4,7 C 5,1 C 3,2 km/h (1 Bft)
12.03.2018 23:57 5,1 C 97 % 991,1 hPa 0,0 l/m 3,0 km/h (1 Bft) N-NW 331 0 min 0 W/m 4,7 C 5,1 C 6,4 km/h (2 Bft)
_ Min-Zeit 05:33 14:27 16:03 - 00:09 - - - - 05:33 05:33 00:09
Minimum _ 3,3 C 87 % 989,8 hPa - 0,0 km/h (0 Bft) - - - - 3,0 C 3,4 C 0,0 km/h (0 Bft)
_ Max-Zeit 13:06 09:42 00:00 20:12 22:24 - - 10:18 10:30 13:06 13:06 22:24
Maximum _ 12,1 C 99 % 992,0 hPa 0,2 l/m 10,9 km/h
W-SW (2 Bft)
- - 3 min 301 W/m 10,3 C 12,1 C 22,5 km/h
W-SW (4 Bft)
Durchschnitt _ 7,5 C 95 % 990,7 hPa #1,6 l/m 1,6 km/h (1 Bft) SO - #24 min. 133 W/m 6,8 C 7,5 C 3,6 km/h (1 Bft)
2018 Cux-Wetter.de -Die Nutzung der Wetterdaten nur mit ausdrcklicher Genehmigung